GFSFLT2_con_mlcape_000.txt.gz
CAPE
481 527 499 273 301 303 373 575 519 439 452 427 416 358 256 137 61 33 13 0 0 0 0 0 0 2 14 92 178 204 743 668
510 684 627 760 589 103 192 349 378 333 289 203 150 131 17 0 0 0 0 0 0 0 0 0 0 0 0 0 0 45 444 410
758 737 726 696 464 371 62 71 239 245 363 200 288 436 391 95 0 0 0 0 0 0 0 0 0 0 0 0 0 23 63 106
992 1040 918 709 210 548 484 449 601 873 894 950 616 719 606 146 52 0 0 0 0 0 0 0 0 0 0 0 0 0 0 5
1099 1264 1230 866 201 422 241 203 334 598 1133 1197 892 806 531 366 219 10 3 0 0 0 0 0 0 0 0 0 0 0 0 0
1404 1318 1375 1299 477 282 320 288 246 345 540 1121 833 537 439 333 54 0 0 0 0 0 0 0 0 0 0 0 0 0 0 0
1784 1742 1444 969 1149 531 622 552 255 359 394 351 628 287 136 40 0 0 0 0 0 1 0 0 0 0 0 0 0 0 0 0
2023 1920 1200 508 445 650 365 193 100 105 43 25 178 247 2 0 0 0 0 0 0 0 0 0 0 0 0 0 0 0 0 0
1760 1497 306 285 160 84 13 0 1 0 0 0 9 23 0 0 0 0 0 0 0 0 0 0 0 0 0 0 0 0 0 0
1248 589 28 24 16 23 14 10 18 14 10 3 0 8 12 0 0 0 0 0 0 0 0 0 0 0 0 0 0 0 0 0
843 261 0 1 35 52 54 56 24 0 0 0 0 1 6 8 0 0 11 9 0 0 0 0 0 0 0 0 0 0 0 0
536 35 0 48 44 15 0 0 0 0 0 0 0 0 0 0 0 0 14 18 3 0 0 0 0 0 0 0 0 0 0 0
180 29 0 0 0 0 0 0 0 0 0 0 0 0 0 0 0 0 2 7 10 23 19 5 0 0 0 0 0 0 0 0
0 0 0 0 0 0 0 0 0 0 0 0 0 0 0 0 0 0 0 0 0 0 16 19 22 7 0 0 0 0 2 0
0 0 0 0 0 0 0 0 0 0 0 0 0 0 0 0 0 0 0 0 0 0 0 0 0 11 58 2 0 15 33 22
0 0 0 0 0 0 0 0 0 0 0 0 0 0 0 0 0 0 0 0 0 0 0 0 0 0 18 50 32 16 20 24
0 0 0 0 0 0 0 0 0 0 0 0 0 0 0 0 0 0 0 0 0 0 0 0 0 0 12 25 18 20 4 6
0 0 0 0 0 0 0 0 0 0 0 0 0 0 0 0 0 0 0 0 0 0 0 0 0 1 0 0 0 0 0 1
0 0 0 0 0 0 0 0 0 0 0 0 0 0 0 0 0 0 0 0 0 1 5 9 3 4 0 0 1 2 1 2
0 0 0 0 0 0 0 0 0 0 0 0 0 0 0 0 0 0 2 6 19 16 2 0 5 5 10 3 2 4 1 1

GFSFLT2_con_mlcape_003.txt.gz
CAPE
296 321 361 118 154 256 360 472 428 420 302 264 250 134 51 5 0 0 0 0 0 0 0 0 0 0 0 9 65 123 296 349
447 466 350 536 599 47 167 240 283 246 141 59 23 141 26 0 1 0 0 0 0 0 0 0 0 0 0 0 0 10 333 115
572 574 412 321 120 103 81 37 60 132 326 256 345 535 368 159 6 0 0 0 0 0 0 0 0 0 0 0 0 2 0 18
987 939 631 352 0 119 60 48 433 482 519 596 451 414 348 113 85 44 0 0 0 0 0 0 0 0 0 0 0 0 0 0
956 1437 964 343 15 132 109 70 113 284 591 675 418 414 379 248 184 199 231 33 16 0 3 2 0 0 0 0 0 0 0 0
1080 1529 865 538 269 187 183 135 118 125 274 437 340 199 142 136 22 3 0 6 1 6 2 0 0 0 0 0 0 0 0 0
799 1353 489 199 373 397 450 401 274 194 199 132 131 111 57 3 0 0 0 0 3 1 0 0 0 0 0 0 0 0 0 0
889 1325 610 75 113 396 452 225 94 56 16 3 41 63 37 0 0 0 0 0 0 0 0 0 0 0 0 0 0 0 0 0
1095 1296 425 27 119 150 35 0 0 0 0 2 5 19 15 0 0 0 0 0 0 2 1 1 0 0 0 0 0 0 0 0
880 1097 169 20 16 11 4 9 6 15 13 5 16 31 25 30 4 1 6 18 10 3 0 4 8 5 0 0 0 0 0 0
635 910 15 0 33 47 42 25 12 1 0 1 0 0 0 5 3 22 78 47 62 75 36 31 21 12 1 1 0 0 0 0
465 615 0 19 62 56 1 0 0 0 0 0 0 0 2 8 22 50 79 72 107 133 169 109 123 84 26 20 22 8 0 0
256 122 65 31 12 0 0 0 0 0 0 0 0 0 0 0 0 0 1 4 51 72 91 88 117 125 155 111 58 1 0 0
123 17 0 0 0 0 0 0 0 0 0 0 0 0 0 0 0 0 0 0 0 17 44 60 67 87 115 118 26 14 43 50
0 0 0 0 0 0 0 0 0 0 0 0 0 0 0 0 0 0 0 0 0 0 1 4 13 16 65 72 3 1 64 52
0 0 0 0 0 0 0 0 0 0 0 0 0 0 0 0 0 0 0 0 0 0 0 0 0 0 1 2 24 73 29 24
0 0 0 0 0 0 0 0 0 1 0 0 0 0 0 0 0 0 0 0 0 0 0 2 2 7 5 8 6 0 26 2
0 0 0 0 0 0 0 0 0 0 0 0 0 0 0 0 0 0 0 0 2 3 16 22 7 4 4 2 4 1 1 1
0 0 0 0 0 0 0 0 0 0 0 0 0 0 0 0 0 0 0 4 17 37 41 4 0 0 0 4 6 1 1 3
0 0 0 0 0 0 0 0 0 0 0 0 0 0 0 0 2 9 14 22 22 15 21 26 3 2 0 0 1 3 6 2

GFSFLT2_con_mlcape_006.txt.gz
CAPE
189 144 8 20 47 127 194 209 143 50 39 45 22 2 0 0 0 0 0 0 0 0 0 0 0 0 0 0 0 0 0 118
304 322 387 269 39 5 29 21 11 2 5 1 26 49 3 0 0 0 0 0 0 0 0 0 0 0 0 0 0 0 0 28
285 270 232 691 101 2 14 0 41 134 262 180 118 360 232 82 0 0 0 0 0 0 0 0 0 0 0 0 0 0 0 0
727 414 264 23 29 91 370 124 417 517 470 454 557 307 274 135 111 57 0 0 0 0 0 0 0 0 0 0 0 0 0 0
1120 735 400 201 5 94 173 180 104 495 660 483 423 232 335 258 253 220 67 14 72 0 0 0 0 0 0 0 0 0 0 0
1224 843 401 230 301 148 119 217 33 174 193 379 229 157 112 14 3 0 0 0 0 0 0 0 0 0 0 0 0 0 0 0
823 702 328 440 42 412 415 241 227 55 202 111 61 87 36 4 0 0 0 0 0 0 0 0 0 0 0 0 0 0 0 0
959 946 238 114 257 372 473 214 116 178 13 0 15 41 39 19 0 0 0 0 0 0 0 0 0 0 0 0 0 0 0 0
1152 688 202 77 88 221 197 1 0 0 0 2 7 16 16 30 17 3 28 33 15 7 14 0 0 0 0 0 0 0 0 0
316 809 204 35 77 4 2 12 6 15 28 10 2 10 12 15 27 31 51 94 49 54 40 25 18 0 0 0 0 0 0 0
796 311 122 21 93 16 17 12 19 9 0 0 0 0 1 0 3 24 40 57 64 95 87 91 112 89 84 42 0 19 0 0
609 213 0 0 40 37 0 0 0 0 0 0 0 0 0 0 0 0 20 58 18 43 81 35 22 25 46 39 33 16 4 16
54 23 10 14 23 0 0 0 0 0 0 0 0 0 0 0 0 0 0 0 0 0 0 0 0 8 8 22 6 0 72 68
41 0 0 0 0 0 0 0 0 0 0 0 0 0 0 0 0 0 0 0 0 0 0 0 0 0 0 0 0 0 0 0
0 0 0 0 0 0 0 0 0 0 0 0 0 0 0 0 0 0 0 0 0 0 0 0 0 0 0 0 1 0 0 0
0 0 0 0 0 0 0 0 0 0 0 0 0 0 0 0 0 0 0 0 0 0 0 0 0 0 0 0 0 0 1 0
0 0 0 0 0 0 0 0 0 0 0 0 0 0 0 0 0 0 0 0 0 0 0 3 0 0 0 0 0 0 0 0
0 0 0 0 0 0 0 0 0 0 0 0 0 0 0 0 0 0 0 0 2 18 7 1 0 0 0 0 0 0 2 1
0 0 0 0 1 0 0 0 0 0 0 0 0 0 0 0 0 0 2 13 16 1 2 10 7 0 0 0 0 0 0 0
0 0 0 0 0 0 0 0 0 0 0 0 0 0 0 0 0 0 0 0 0 0 1 14 11 11 5 2 0 0 0 0

GFSFLT2_con_mlcape_009.txt.gz
CAPE
25 9 0 0 3 14 6 1 0 0 0 0 0 1 0 0 0 0 0 0 0 0 0 0 0 0 0 0 0 0 0 3
0 0 0 0 0 0 0 0 0 0 0 0 23 16 0 0 0 0 0 0 0 0 0 0 0 0 0 0 0 0 0 0
101 85 55 0 0 0 0 0 8 44 72 52 99 110 48 35 19 0 0 0 0 0 0 0 0 0 0 0 0 0 0 0
135 104 342 0 0 0 0 48 199 223 304 302 207 198 233 78 40 22 5 0 0 0 0 0 0 0 0 0 0 0 0 0
195 19 10 56 70 42 71 137 260 364 396 119 193 80 231 34 74 25 0 2 0 0 0 0 0 0 0 0 0 0 0 0
359 139 48 9 0 34 43 84 49 475 243 244 108 46 7 0 0 0 0 0 0 0 0 0 0 0 0 0 0 0 0 0
506 49 0 48 197 126 82 119 26 33 121 16 2 30 0 0 0 0 0 0 0 0 0 0 0 0 0 0 0 0 0 0
358 282 300 50 253 284 199 102 6 65 0 0 0 0 4 0 0 0 0 0 4 0 0 0 0 0 0 0 0 0 0 0
201 207 352 210 290 223 303 1 0 0 0 0 0 0 0 0 0 0 0 0 12 13 7 6 0 0 0 0 0 0 0 0
28 18 133 78 181 60 1 0 0 0 0 0 0 0 0 0 0 0 0 0 0 0 3 23 23 3 0 0 0 0 0 0
62 3 175 62 0 5 5 0 0 0 0 0 0 0 0 0 0 0 0 0 0 0 0 0 0 0 0 0 0 0 0 0
0 132 76 11 3 8 0 0 0 0 0 0 0 0 0 0 0 0 0 0 0 0 0 0 0 0 0 0 0 0 0 0
52 11 0 1 3 0 0 0 0 0 0 0 0 0 0 0 0 0 0 0 0 0 0 0 0 0 0 0 0 0 0 0
0 0 0 0 0 0 0 0 0 0 0 0 0 0 0 0 0 0 0 0 0 0 0 0 0 0 0 0 0 0 0 0
0 0 0 0 0 0 0 0 0 0 0 0 0 0 0 0 0 0 0 0 0 0 0 0 0 0 0 0 0 0 0 0
0 0 0 0 0 0 0 0 0 0 0 0 0 0 0 0 0 0 0 0 0 0 0 0 0 0 0 0 0 0 0 0
0 0 0 0 0 0 0 0 0 0 0 0 0 0 0 0 0 0 0 0 0 0 0 0 0 0 0 0 0 0 0 0
0 0 0 0 0 0 0 0 0 0 0 0 0 0 0 0 0 0 0 0 0 0 0 0 0 3 12 1 1 0 0 0
0 0 0 0 0 0 0 0 0 0 0 0 0 0 0 0 0 0 0 0 0 0 0 1 2 1 0 0 0 0 0 0
0 0 0 0 0 0 0 0 0 0 0 0 0 0 0 0 0 0 0 0 0 0 0 0 0 0 0 0 1 0 1 4

GFSFLT2_con_mlcape_012.txt.gz
CAPE
380 281 188 72 11 0 0 1 0 0 0 0 0 0 0 0 0 0 0 0 0 0 0 0 0 0 0 0 0 0 0 0
0 0 0 0 0 0 0 0 0 0 0 12 20 0 0 0 0 0 0 0 0 0 0 0 0 0 0 0 0 0 0 0
0 0 0 0 0 0 0 0 0 0 17 51 94 62 1 0 3 0 0 0 0 0 0 0 0 0 0 0 0 0 0 0
0 0 0 0 0 0 0 10 99 122 147 137 123 139 128 31 59 35 20 0 0 0 0 0 0 0 0 0 0 0 0 0
46 67 0 0 0 0 19 90 141 176 301 241 178 163 165 172 44 0 0 0 0 0 0 0 0 0 0 0 0 0 0 0
40 145 29 4 13 0 20 90 232 344 334 144 11 0 0 0 0 0 0 0 0 0 0 0 0 0 0 0 0 0 0 0
0 4 4 11 59 78 62 80 180 315 130 16 0 1 0 0 0 0 0 0 0 0 0 0 0 0 0 0 0 0 0 0
199 58 94 89 112 30 78 3 7 69 17 0 0 0 0 0 0 0 0 0 0 0 0 0 0 0 0 0 0 0 0 0
184 42 148 10 262 182 45 0 18 7 0 2 0 0 0 0 0 0 0 0 0 0 0 0 0 0 0 0 0 0 0 0
145 12 170 201 203 140 120 0 0 0 0 0 0 0 0 0 0 0 0 0 0 0 0 0 0 0 0 0 0 0 0 0
0 2 133 67 60 1 0 0 0 0 0 0 0 0 0 0 0 0 0 0 0 0 0 0 0 0 0 0 0 0 0 0
3 64 42 5 0 0 0 0 0 0 0 0 0 0 0 0 0 0 0 0 0 0 0 0 0 0 0 0 0 0 0 0
9 29 0 0 0 0 0 0 0 0 0 0 0 0 0 0 0 0 0 0 0 0 0 0 0 0 0 0 0 0 0 0
0 0 0 0 0 0 0 0 0 0 0 0 0 0 0 0 0 0 0 0 0 0 0 0 0 0 0 0 0 0 0 0
0 0 0 0 0 0 0 0 0 0 0 0 0 0 0 0 0 0 0 0 0 0 0 0 0 0 0 0 0 0 0 0
0 0 0 0 0 0 0 0 0 0 0 0 0 0 0 0 0 0 0 0 0 0 0 0 0 0 0 0 0 0 3 0
0 0 0 0 0 0 0 0 0 0 0 0 0 0 0 0 0 0 0 0 0 0 0 0 0 0 2 4 1 1 0 0
0 0 0 0 0 0 0 0 0 0 0 0 0 0 0 0 0 0 0 0 0 0 0 0 0 0 0 0 0 1 1 1
0 0 0 0 0 0 0 0 0 0 0 0 0 0 0 0 0 0 0 0 0 0 0 0 0 0 0 1 1 1 0 3
0 0 0 0 0 0 0 0 0 0 0 0 0 0 0 0 0 0 0 0 0 0 0 0 0 0 0 0 2 0 8 4

GFSFLT2_con_mlcape_015.txt.gz
CAPE
778 791 697 557 297 155 72 3 0 0 0 2 0 0 0 0 0 0 0 0 0 0 0 0 0 0 0 0 0 0 0 0
264 212 132 15 0 0 0 0 0 0 3 3 0 0 0 0 0 0 0 0 0 0 0 0 0 0 0 0 0 0 0 0
0 0 0 0 0 0 0 0 0 0 0 5 26 0 0 10 24 2 1 0 0 0 0 0 0 0 0 0 0 0 0 0
0 0 0 0 0 0 0 0 0 3 27 52 99 97 63 19 15 70 30 30 4 0 13 17 0 0 0 0 0 0 0 0
0 0 0 0 0 0 0 23 37 97 161 165 144 139 119 85 17 0 0 0 0 0 0 0 0 0 0 0 0 0 0 0
0 0 0 0 0 0 27 55 106 149 213 155 38 7 0 0 0 0 0 0 0 0 0 0 0 0 0 0 0 0 0 0
81 52 0 0 0 1 35 85 250 283 226 102 2 0 0 0 0 0 0 0 0 0 0 0 0 0 0 0 0 0 0 0
108 115 5 0 7 23 36 85 162 290 162 10 0 0 0 0 0 0 0 0 0 0 0 0 0 0 0 0 0 0 0 0
54 123 1 1 15 14 3 0 9 100 6 0 0 0 0 0 0 0 0 0 0 0 0 0 0 0 0 0 0 0 0 0
43 94 6 1 0 0 0 0 0 0 0 0 0 0 0 0 0 0 0 0 0 0 0 0 0 0 0 0 0 0 0 0
0 0 0 0 0 0 0 0 0 0 0 0 0 0 0 0 0 0 0 0 0 0 0 0 0 0 0 0 0 0 0 0
0 0 0 0 0 0 0 0 0 0 0 0 0 0 0 0 0 0 0 0 0 0 0 0 0 0 0 0 0 0 0 0
0 1 0 0 0 0 0 0 0 0 0 0 0 0 0 0 0 0 0 0 0 0 0 0 0 0 0 0 0 0 0 0
0 0 0 0 0 0 0 0 0 0 0 0 0 0 0 0 0 0 0 0 0 0 0 0 0 0 0 0 0 0 0 0
0 0 0 0 0 0 0 0 0 0 0 0 0 0 0 0 0 0 0 0 0 0 0 0 0 0 0 0 0 0 0 0
0 0 0 0 0 0 0 0 0 0 0 0 0 0 0 0 0 0 0 0 0 0 0 0 0 0 0 0 0 4 14 3
0 0 0 0 0 0 0 0 0 0 0 0 0 0 0 0 0 0 0 0 0 0 0 0 0 0 0 1 0 0 0 4
0 0 0 0 0 0 0 0 0 0 0 0 0 0 0 0 0 0 0 0 0 0 0 0 0 0 0 0 0 2 3 1
0 0 0 0 0 0 0 0 0 0 0 0 0 0 0 0 0 0 0 0 0 0 0 0 0 0 0 0 0 0 1 3
0 0 0 0 0 0 0 0 0 0 0 0 0 0 0 0 0 0 0 0 0 0 0 0 0 0 0 0 0 2 13 0

GFSFLT2_con_mlcape_018.txt.gz
CAPE
648 622 575 603 595 500 266 42 0 0 0 0 0 0 0 0 0 0 0 0 0 0 0 0 0 0 0 0 0 0 0 0
674 640 621 497 350 186 16 0 0 0 17 11 0 0 0 0 0 0 0 0 0 0 0 0 0 0 0 0 0 0 0 0
511 440 276 64 3 0 0 0 0 0 46 8 0 0 0 0 3 0 0 0 0 0 0 0 0 0 0 0 0 0 0 0
71 33 0 0 0 0 0 0 0 14 41 58 35 25 14 2 7 13 14 2 0 0 0 0 0 0 0 0 0 0 0 0
0 0 0 0 0 0 0 0 11 62 83 84 95 90 67 58 6 0 0 0 0 0 0 0 0 0 0 0 0 0 0 0
0 0 0 0 0 0 0 9 50 179 221 231 107 47 1 0 0 0 0 0 0 0 0 0 0 0 0 0 0 0 0 0
0 0 0 0 0 0 2 56 145 181 246 142 21 0 0 0 0 0 0 0 0 0 0 0 0 0 0 0 0 0 0 0
0 0 0 0 0 0 0 10 73 210 164 55 1 0 0 0 0 0 0 0 0 0 0 0 0 0 0 0 0 0 0 0
14 0 0 0 0 0 0 0 37 58 10 0 0 0 0 0 0 0 0 0 0 0 0 0 0 0 0 0 0 0 0 0
46 5 0 0 0 0 0 0 0 0 0 0 0 0 0 0 0 0 0 0 0 0 0 0 0 0 0 0 0 0 0 0
18 0 0 0 7 11 0 0 0 0 0 0 0 0 0 0 0 0 0 0 0 0 0 0 0 0 0 0 0 0 0 0
0 0 0 3 0 0 0 0 0 0 0 0 0 0 0 0 0 0 0 0 0 0 0 0 0 0 0 0 0 0 0 0
0 0 0 0 0 0 0 0 0 0 0 0 0 0 0 0 0 0 0 0 0 0 0 0 0 0 0 0 0 0 0 0
0 0 0 0 0 0 0 0 0 0 0 0 0 0 0 0 0 0 0 0 0 0 0 0 0 0 0 0 0 0 0 0
0 0 0 0 0 0 0 0 0 0 0 0 0 0 0 0 0 0 0 0 0 0 0 0 0 0 0 0 0 0 0 0
0 0 0 0 0 0 0 0 0 0 0 0 0 0 0 0 0 0 0 0 0 0 0 0 0 0 0 0 0 1 4 2
0 0 0 0 0 0 0 0 0 0 0 0 0 0 0 0 0 0 0 0 0 0 0 0 0 0 0 0 0 0 0 20
0 0 0 0 0 0 0 0 0 0 0 0 0 0 0 0 0 0 0 0 0 0 0 0 0 0 0 0 0 1 0 11
0 0 0 0 0 0 0 0 0 0 0 0 0 0 0 0 0 0 0 0 0 0 0 0 0 0 0 0 0 0 2 5
0 0 0 0 0 0 0 0 0 0 0 0 0 0 0 0 0 0 0 0 0 0 0 0 0 0 0 0 0 0 0 0

GFSFLT2_con_mlcape_021.txt.gz
CAPE
884 920 811 694 694 687 307 141 27 14 0 0 0 0 0 0 0 0 0 0 0 0 0 0 0 0 0 0 0 0 0 0
739 766 797 802 782 570 251 66 4 0 0 0 0 0 0 0 0 0 0 0 0 0 0 0 0 0 0 0 0 0 0 0
648 676 718 653 565 407 71 0 0 27 29 4 2 1 26 36 2 8 0 0 0 0 0 0 0 0 0 0 0 0 0 0
658 670 552 270 137 134 38 41 46 85 115 126 47 53 62 51 41 7 0 0 0 0 0 0 0 0 0 0 0 0 0 0
478 351 118 12 7 3 0 5 43 84 138 176 169 178 210 210 90 0 0 0 0 0 0 0 0 0 0 0 0 0 0 0
68 11 0 0 0 0 0 32 79 221 337 351 352 218 90 48 0 0 0 0 0 0 0 0 0 0 0 0 0 0 0 0
0 0 0 0 0 0 13 53 184 252 327 234 80 0 0 0 0 0 0 0 0 0 0 0 0 0 0 0 0 0 0 0
0 0 0 0 1 0 2 23 39 61 100 49 3 0 0 0 0 0 0 0 0 0 0 0 0 0 0 0 0 0 0 0
0 0 0 0 0 1 3 0 0 0 0 0 0 0 0 0 0 0 0 0 0 0 0 0 0 0 0 0 0 0 0 0
4 0 0 0 2 19 19 0 0 0 0 0 0 0 0 0 0 0 0 0 0 0 0 0 0 0 0 0 0 0 0 0
0 2 1 0 0 0 0 0 0 0 0 0 0 0 0 0 0 0 0 0 0 0 0 0 0 0 0 0 0 0 0 0
3 0 0 6 12 0 0 0 0 0 0 0 0 0 0 0 0 0 0 0 0 0 0 0 0 0 0 0 0 0 0 0
7 0 0 0 0 0 0 0 0 0 0 0 0 0 0 0 0 0 0 0 0 0 0 0 0 0 0 0 0 0 0 0
13 9 0 0 0 0 0 0 0 0 0 0 0 0 0 0 0 0 0 0 0 0 0 0 0 0 0 0 0 0 0 0
0 0 0 0 0 0 0 0 0 0 0 0 0 0 0 0 0 0 0 0 0 0 0 0 0 0 0 0 0 0 0 0
0 0 0 0 0 0 0 0 0 0 0 0 0 0 0 0 0 0 0 0 0 0 0 0 0 0 0 0 0 0 0 0
0 0 0 0 0 0 0 0 0 0 0 0 0 0 0 0 0 0 0 0 0 0 0 0 0 0 0 0 0 0 1 16
0 0 0 0 0 0 0 0 0 0 0 0 0 0 0 0 0 0 0 0 0 0 0 0 0 0 0 0 0 0 0 5
0 0 0 0 0 0 0 0 0 0 0 0 0 0 0 0 0 0 0 0 0 0 0 0 0 0 0 0 0 0 4 5
0 0 0 0 0 0 0 0 0 0 0 0 0 0 0 0 0 0 0 0 0 0 0 0 1 0 0 0 0 0 20 16

GFSFLT2_con_mlcape_024.txt.gz
CAPE
782 666 586 794 794 563 356 189 142 39 14 0 0 0 0 0 0 0 0 0 0 0 0 0 0 0 0 0 0 0 0 0
852 868 854 825 827 490 250 118 48 41 11 0 0 0 0 0 0 0 0 0 0 0 0 0 0 0 0 0 0 0 0 0
915 862 852 823 659 527 127 37 47 48 22 0 31 155 160 106 0 0 0 0 0 0 0 0 0 0 0 0 0 0 0 0
714 1007 871 763 355 244 85 30 119 367 391 393 389 508 395 170 75 0 0 0 0 0 0 0 0 0 0 0 0 0 0 0
715 906 682 251 97 13 0 42 375 550 709 749 791 741 792 550 120 0 0 0 0 0 0 0 0 0 0 0 0 0 0 0
504 424 259 101 0 0 30 366 587 639 854 984 926 800 786 532 9 8 19 0 3 0 0 0 0 0 0 0 0 0 0 0
174 73 15 1 8 148 404 542 591 716 824 688 557 406 343 94 46 0 0 0 0 0 0 0 0 0 0 0 0 0 0 0
138 24 4 79 205 357 398 216 84 104 154 95 63 86 199 121 4 0 0 0 0 0 0 0 0 0 0 0 0 0 0 0
301 133 89 188 291 160 18 2 5 8 6 8 6 5 17 0 0 0 0 0 0 0 0 0 0 0 0 0 0 0 0 0
401 165 79 292 252 19 3 0 1 0 0 0 0 0 0 0 0 0 0 0 0 0 0 0 0 0 0 0 0 0 0 0
421 369 156 0 1 29 11 0 0 0 0 0 0 0 0 0 0 0 0 0 0 0 0 0 0 0 0 0 0 0 0 0
494 306 13 0 0 0 0 0 0 0 0 0 0 0 0 0 0 0 0 0 0 0 0 0 0 0 0 0 0 0 0 0
440 116 251 46 58 5 0 0 0 0 0 0 0 0 0 0 0 0 0 0 0 0 0 0 0 0 0 0 0 0 2 6
378 487 477 167 14 0 0 0 0 0 0 0 0 0 0 0 0 0 0 0 0 0 0 0 0 0 0 0 0 0 0 8
595 459 228 0 0 0 0 0 0 0 0 0 0 0 0 0 0 0 0 0 0 0 0 0 0 0 0 0 0 0 0 0
24 0 0 0 0 0 0 0 0 0 0 0 0 0 0 0 0 0 0 0 0 0 0 0 0 0 0 0 0 0 0 0
0 0 0 0 0 0 0 0 0 0 0 0 0 0 0 0 0 0 0 2 2 0 0 0 0 0 0 0 0 0 0 5
0 0 0 0 0 0 0 0 0 0 0 0 0 0 0 2 11 11 7 2 0 0 0 0 6 0 0 3 7 6 6 6
0 0 0 0 0 0 0 0 0 0 0 0 0 0 0 0 0 0 2 13 0 25 14 29 23 14 9 6 10 9 6 7
0 0 0 0 0 0 0 0 0 0 0 0 0 0 0 0 0 0 6 26 22 40 39 37 18 11 10 18 15 11 8 14

GFSFLT2_con_mlcape_027.txt.gz
CAPE
540 506 439 532 518 403 226 146 40 1 0 0 0 0 0 0 0 0 0 0 0 0 0 0 0 0 0 0 0 0 0 0
595 587 684 695 540 308 147 26 4 0 0 0 0 0 0 0 0 0 0 0 0 0 0 0 0 0 0 0 0 0 0 1
533 490 670 717 546 213 14 1 0 0 0 0 19 118 113 111 0 0 0 0 0 0 0 0 0 0 0 0 0 0 0 0
491 548 579 499 261 77 0 0 42 205 182 229 397 358 430 129 19 0 0 0 0 0 0 0 0 0 0 0 0 0 0 0
649 658 537 261 122 2 0 25 260 465 609 703 618 527 557 431 231 43 61 0 54 14 16 0 0 0 0 0 0 0 0 0
558 392 268 65 0 0 7 279 438 613 764 805 716 532 687 400 151 42 68 33 19 4 6 0 0 0 0 0 0 0 0 0
211 139 33 0 0 42 397 443 574 787 805 764 687 519 475 272 203 97 75 28 16 1 10 2 0 0 0 0 0 0 0 0
104 0 0 33 274 353 404 223 120 141 184 232 253 96 225 116 37 10 25 20 5 0 0 0 0 0 0 0 0 0 0 0
150 68 262 394 375 84 70 77 83 80 103 95 115 29 27 0 0 3 2 0 0 0 0 0 0 0 0 0 0 0 0 0
342 241 400 507 109 0 1 1 21 36 56 2 0 0 0 0 0 0 0 0 0 0 0 0 0 0 0 0 0 0 0 0
461 337 480 50 0 3 0 11 21 0 0 0 0 0 0 0 0 0 0 0 0 0 0 0 0 0 0 0 0 0 0 0
618 472 163 6 22 0 0 0 0 0 0 0 0 0 0 0 0 0 0 0 0 0 0 0 0 0 0 0 0 0 0 0
727 403 235 229 134 25 2 0 0 0 0 0 0 0 0 0 0 0 0 0 0 0 0 0 0 0 0 0 0 0 0 0
713 535 451 450 282 145 63 28 0 0 0 0 0 0 0 0 0 0 0 0 0 0 0 0 0 0 0 0 0 0 0 0
646 629 702 434 40 3 25 28 0 0 0 0 0 0 0 0 0 0 0 0 0 0 0 0 0 0 0 0 0 0 0 0
687 516 149 2 0 1 2 3 9 5 1 0 0 0 0 0 0 0 0 0 0 0 0 0 3 1 2 3 0 0 0 0
216 16 2 0 0 0 0 0 0 0 0 0 0 0 0 0 0 0 0 0 0 2 4 7 13 10 6 4 1 0 2 9
0 0 0 0 0 0 0 0 0 0 0 0 0 0 0 0 0 0 0 0 3 5 14 26 16 19 23 12 7 12 11 9
0 0 0 0 0 0 0 0 0 0 0 0 0 0 0 0 0 0 0 0 0 14 18 25 22 23 26 17 9 13 25 19
0 0 0 0 0 0 0 0 0 0 0 0 0 0 0 0 0 0 0 0 3 19 29 15 10 8 22 14 10 12 23 23

GFSFLT2_con_mlcape_030.txt.gz
CAPE
102 308 401 438 293 194 143 55 10 0 0 0 0 0 0 0 0 0 0 0 0 0 0 0 0 0 0 0 0 0 0 0
144 248 415 324 201 102 43 14 0 0 0 0 0 0 0 0 0 0 0 0 0 0 0 0 0 0 0 0 0 0 0 0
99 217 456 199 111 35 1 0 0 0 0 0 0 0 0 93 0 0 0 0 0 0 0 0 0 0 0 0 0 0 0 0
225 429 519 254 25 18 0 0 0 0 0 0 123 359 28 78 0 0 0 0 0 0 0 0 0 0 0 0 0 0 0 0
445 299 351 101 78 8 3 59 292 290 432 422 484 516 532 127 136 1 0 0 39 0 41 5 0 0 0 0 0 0 0 0
499 352 202 65 29 0 1 438 443 616 580 613 491 488 420 173 70 78 17 7 26 24 29 4 0 0 0 0 0 0 0 0
328 231 112 0 5 275 467 552 467 599 646 349 528 366 283 246 61 3 0 3 11 3 0 0 0 0 0 0 0 0 0 0
175 86 14 109 466 412 364 338 246 167 126 201 361 170 94 21 0 0 0 0 0 0 0 0 0 0 0 0 0 0 0 0
53 7 81 415 336 192 78 11 16 26 48 69 47 30 3 0 0 0 0 0 0 0 0 0 0 0 0 0 0 0 0 0
63 169 437 268 51 16 3 0 15 14 6 0 0 0 0 0 0 0 0 0 0 0 0 0 0 0 0 0 0 0 0 0
299 472 341 131 0 0 0 0 0 0 0 0 0 0 0 0 0 0 0 0 0 0 0 0 0 0 0 0 0 0 0 0
382 601 340 40 0 12 10 0 0 0 0 0 0 0 0 0 0 0 0 0 0 0 0 0 0 0 0 0 0 0 0 0
420 444 198 52 22 42 3 0 0 0 0 0 0 0 0 0 0 0 0 0 0 0 0 0 0 0 0 0 0 0 0 0
411 309 139 235 292 67 14 0 0 0 0 0 0 0 0 0 0 0 0 0 0 0 0 0 0 0 0 0 0 0 0 0
455 379 279 349 332 76 20 1 0 0 0 0 0 0 0 0 0 0 0 0 0 0 0 0 0 0 0 0 0 0 0 0
599 552 547 481 267 19 2 0 0 0 0 0 0 0 0 0 0 0 0 0 0 0 0 0 0 0 0 0 0 0 0 0
786 752 377 34 0 8 0 0 0 0 0 0 0 0 0 0 0 0 0 0 0 0 0 0 0 0 0 0 0 0 0 0
468 282 1 0 0 0 0 0 0 0 0 0 0 0 0 0 0 0 0 0 0 0 0 7 1 0 0 1 0 0 0 0
44 0 0 0 0 0 0 0 0 0 0 0 0 0 0 0 0 0 0 0 0 0 1 0 0 1 0 0 10 3 0 1
0 0 0 0 0 0 0 0 0 0 0 0 0 0 0 0 0 0 0 0 0 0 8 17 14 5 6 7 6 1 0 0

GFSFLT2_con_mlcape_033.txt.gz
CAPE
128 152 260 125 106 32 1 0 0 0 0 0 0 0 0 0 0 0 0 0 0 0 0 0 0 0 0 0 0 0 0 0
82 126 201 136 75 6 2 0 0 0 0 0 0 0 0 0 0 0 0 0 0 0 0 0 0 0 0 0 0 0 0 0
80 175 170 55 19 7 0 0 0 0 0 0 0 0 0 0 0 0 0 0 0 0 0 0 0 0 0 0 0 0 0 0
26 111 92 17 5 0 0 0 0 0 0 0 0 0 0 0 0 0 0 0 0 0 0 0 0 0 0 0 0 0 0 0
0 87 42 0 0 0 0 0 0 0 0 12 115 124 3 0 0 0 0 0 0 0 0 0 0 0 0 0 0 0 0 0
60 256 17 0 0 0 2 11 39 255 421 399 230 181 5 0 0 5 0 0 0 0 0 0 0 0 0 0 0 0 0 0
215 219 16 5 1 18 77 324 322 363 210 182 112 66 0 0 0 0 0 0 0 0 0 0 0 0 0 0 0 0 0 0
128 105 9 39 180 267 293 181 60 19 6 17 13 9 0 0 0 0 0 0 0 0 0 0 0 0 0 0 0 0 0 0
44 0 119 238 143 86 6 0 0 0 0 0 0 0 0 0 0 0 0 0 0 0 0 0 0 0 0 0 0 0 0 0
11 73 229 126 47 0 0 0 0 0 0 0 0 0 0 0 0 0 0 0 0 0 0 0 0 0 0 0 0 0 0 0
2 187 146 52 0 0 0 0 0 0 0 0 0 0 0 0 0 0 0 0 0 0 0 0 0 0 0 0 0 0 0 0
208 257 99 16 0 0 0 0 0 0 0 0 0 0 0 0 0 0 0 0 0 0 0 0 0 0 0 0 0 0 0 0
324 251 68 0 0 0 0 0 0 0 0 0 0 0 0 0 0 0 0 0 0 0 0 0 0 0 0 0 0 0 0 0
333 285 94 4 1 27 0 0 0 0 0 0 0 0 0 0 0 0 0 0 0 0 0 0 0 0 0 0 0 0 0 0
313 294 184 85 23 99 0 0 0 0 0 0 0 0 0 0 0 0 0 0 0 0 0 0 0 0 0 0 0 0 0 0
314 239 146 82 151 100 0 0 0 0 0 0 0 0 0 0 0 0 0 0 0 0 0 0 0 0 0 0 0 0 0 0
371 301 230 181 217 20 0 0 0 0 0 0 0 0 0 0 0 0 0 0 0 0 0 0 0 0 0 0 0 0 0 0
438 376 376 274 42 2 0 0 0 0 0 0 0 0 0 0 0 0 0 0 0 0 0 0 0 0 0 0 0 0 0 0
518 474 89 0 0 0 0 0 0 0 0 0 0 0 0 0 0 0 0 0 0 0 0 0 0 0 0 0 0 0 0 0
385 46 0 0 0 0 0 0 0 0 0 0 0 0 0 0 0 0 0 0 0 0 0 0 0 0 0 0 0 0 2 0

GFSFLT2_con_mlcape_036.txt.gz
CAPE
71 34 23 115 72 6 1 0 3 10 2 0 0 0 0 0 0 0 0 0 0 0 0 0 0 0 0 0 0 0 0 0
0 58 50 2 0 0 0 2 3 0 0 0 0 0 0 0 0 0 0 0 0 0 0 0 0 0 0 0 0 0 0 0
0 4 20 21 36 1 0 0 0 0 0 0 0 0 0 0 0 0 0 0 0 0 0 0 0 0 0 0 0 0 0 0
0 3 41 60 17 0 0 0 0 0 0 0 0 0 0 0 0 0 0 0 0 0 0 0 0 0 0 0 0 0 0 0
8 88 47 2 0 0 0 0 0 0 0 0 0 0 1 0 0 0 0 0 0 0 0 0 0 0 0 0 0 0 0 0
7 51 28 0 0 0 0 0 0 2 25 81 99 22 0 0 0 0 0 0 0 0 0 0 0 0 0 0 0 0 0 0
42 55 39 0 0 0 0 0 25 128 91 32 0 0 0 0 0 0 0 0 0 0 0 0 0 0 0 0 0 0 0 0
50 134 71 0 0 3 28 148 91 8 63 6 0 0 0 0 0 0 0 0 0 0 0 0 0 0 0 0 0 0 0 0
150 214 13 5 5 8 74 2 0 0 0 0 0 0 0 0 0 0 0 0 0 0 0 0 0 0 0 0 0 0 0 0
151 112 13 14 11 12 0 0 0 0 0 0 0 0 0 0 0 0 0 0 0 0 0 0 0 0 0 0 0 0 0 0
90 77 39 50 0 0 0 0 0 0 0 0 0 0 0 0 0 0 0 0 0 0 0 0 0 0 0 0 0 0 0 0
79 86 50 0 0 0 0 0 0 0 0 0 0 0 0 0 0 0 0 0 0 0 0 0 0 0 0 0 0 0 0 0
68 62 28 0 0 0 0 0 0 0 0 0 0 0 0 0 0 0 0 0 0 0 0 0 0 0 0 0 0 0 0 0
9 48 21 0 0 0 0 0 0 0 0 0 0 0 0 0 0 0 0 0 0 0 0 0 0 0 0 0 0 0 0 0
52 64 29 0 0 0 0 0 0 0 0 0 0 0 0 0 0 0 0 0 0 0 0 0 0 0 0 0 0 0 0 0
209 150 41 0 0 18 0 0 0 0 0 0 0 0 0 0 0 0 0 0 0 0 0 0 0 0 0 0 0 0 0 0
229 297 194 88 4 16 0 0 0 0 0 0 0 0 0 0 0 0 0 0 0 0 0 0 0 0 0 0 0 0 0 0
276 246 212 131 76 38 9 0 0 0 0 0 0 0 0 0 0 0 0 0 0 0 0 0 0 0 0 0 0 0 0 0
293 309 278 200 79 77 2 0 0 0 0 0 0 0 0 0 0 0 0 0 0 0 0 0 0 0 0 0 0 0 0 0
336 301 225 78 6 1 0 0 0 0 0 0 0 0 0 0 0 0 0 0 0 0 0 0 0 0 0 0 0 0 0 6

GFSFLT2_con_mlcape_039.txt.gz
CAPE
52 77 79 62 75 34 58 117 123 106 50 24 8 0 0 0 0 0 0 0 0 0 0 0 0 0 0 0 0 0 0 0
0 12 14 41 45 79 66 31 56 18 0 0 0 0 0 0 0 0 0 0 0 0 0 0 0 0 0 0 0 0 0 0
0 0 0 5 26 0 1 23 8 0 0 0 0 0 0 0 0 0 0 0 0 0 0 0 0 0 0 0 0 0 0 0
0 0 0 0 22 0 6 19 3 0 0 0 0 0 0 0 0 0 0 0 0 0 0 0 0 0 0 0 0 0 0 0
3 1 42 43 27 0 0 0 0 0 0 0 0 1 0 0 0 0 0 0 0 0 0 0 0 0 0 0 0 0 0 0
0 21 91 65 15 0 0 0 0 0 0 0 0 9 0 0 0 0 0 0 0 0 0 0 0 0 0 0 0 0 0 0
1 74 105 32 1 0 0 0 0 25 102 129 55 17 0 0 0 0 0 0 0 0 0 0 0 0 0 0 0 0 0 0
36 73 75 7 0 0 0 0 152 140 92 70 11 0 0 0 0 0 0 0 0 0 0 0 0 0 0 0 0 0 0 0
35 81 91 0 0 0 0 11 42 37 3 0 0 0 0 0 0 0 0 0 0 0 0 0 0 0 0 0 0 0 0 0
72 157 45 0 0 0 1 19 0 0 0 0 0 0 0 0 0 0 0 0 0 0 0 0 0 0 0 0 0 0 0 0
117 156 74 0 0 0 7 0 0 0 0 0 0 0 0 0 0 0 0 0 0 0 0 0 0 0 0 0 0 0 0 0
171 146 64 0 0 0 0 0 0 0 0 0 0 0 0 0 0 0 0 0 0 0 0 0 0 0 0 0 0 0 0 0
199 139 10 0 0 0 0 0 0 0 0 0 0 0 0 0 0 0 0 0 0 0 0 0 0 0 0 0 0 0 0 0
166 85 2 2 0 0 0 0 0 0 0 0 0 0 0 0 0 0 0 0 0 0 0 0 0 0 0 0 0 0 0 0
134 30 8 0 0 0 0 0 0 0 0 0 0 0 0 0 0 0 0 0 0 0 0 0 0 0 0 0 0 0 0 0
103 36 17 0 0 0 0 0 0 0 0 0 0 0 0 0 0 0 0 0 0 0 0 0 0 0 0 0 0 0 0 0
82 22 10 2 0 0 0 0 0 0 0 0 0 0 0 0 0 0 0 0 0 0 0 0 0 0 0 0 0 0 0 0
54 7 0 0 0 0 0 0 0 0 0 0 0 0 0 0 0 0 0 0 0 0 0 0 0 0 0 0 0 0 0 0
63 38 36 29 3 0 0 0 0 0 0 0 0 0 0 0 0 0 0 0 0 0 0 0 0 0 0 0 0 0 0 0
87 123 171 116 77 33 1 0 0 0 0 0 0 0 0 0 0 0 0 0 0 0 0 0 0 0 0 0 0 0 0 0

GFSFLT2_con_mlcape_042.txt.gz
CAPE
69 16 23 126 134 113 175 182 166 162 120 109 44 9 0 0 0 0 0 0 0 0 0 0 0 0 0 0 0 0 0 0
3 0 0 73 134 252 255 203 179 91 43 2 0 0 0 0 0 0 0 0 0 0 0 0 0 0 0 0 0 0 0 0
8 8 36 79 111 180 217 232 67 22 0 0 0 0 0 0 0 0 0 0 0 0 0 0 0 0 0 0 0 0 0 0
0 0 6 5 0 34 42 93 17 0 0 0 0 0 0 0 0 0 0 0 0 0 0 0 0 0 0 0 0 0 0 0
0 0 11 46 7 4 14 1 0 0 0 0 0 0 0 0 0 0 0 0 0 0 0 0 0 0 0 0 0 0 0 0
0 6 26 109 19 0 0 0 0 0 0 0 0 0 0 0 0 0 0 0 0 0 0 0 0 0 0 0 0 0 0 0
0 5 78 42 14 0 0 0 0 0 0 0 0 9 0 0 0 0 0 0 0 0 0 0 0 0 0 0 0 0 0 0
0 14 75 35 0 0 0 0 0 0 0 20 41 13 0 0 0 0 0 0 0 0 0 0 0 0 0 0 0 0 0 0
0 4 91 12 0 0 0 0 5 107 69 3 12 0 0 0 0 0 0 0 0 0 0 0 0 0 0 0 0 0 0 0
0 37 106 1 0 0 0 0 24 0 0 0 0 0 0 0 0 0 0 0 0 0 0 0 0 0 0 0 0 0 0 0
29 68 102 7 0 0 0 0 3 0 0 0 0 0 0 0 0 0 0 0 0 0 0 0 0 0 0 0 0 0 0 0
51 93 92 4 0 0 0 0 0 0 0 0 0 0 0 0 0 0 0 0 0 0 0 0 0 0 0 0 0 0 0 0
57 119 82 14 0 0 0 10 0 0 0 0 0 0 0 0 0 0 0 0 0 0 0 0 0 0 0 0 0 0 0 0
53 81 91 52 0 0 0 0 0 0 0 0 0 0 0 0 0 0 0 0 0 0 0 0 0 0 0 0 0 0 0 0
59 92 94 38 2 0 0 0 0 0 0 0 0 0 0 0 0 0 0 0 0 0 0 0 0 0 0 0 0 0 0 0
120 117 74 9 0 0 0 0 0 0 0 0 0 0 0 0 0 0 0 0 0 0 0 0 0 0 0 0 0 0 0 0
143 96 41 1 0 0 0 0 0 0 0 0 0 0 0 0 0 0 0 0 0 0 0 0 0 0 0 0 0 0 0 0
161 146 88 1 0 0 0 0 0 0 0 0 0 0 0 0 0 0 0 0 0 0 0 0 0 0 0 0 0 0 0 0
147 148 126 24 4 0 0 0 0 0 0 0 0 0 0 0 0 0 0 0 0 0 0 0 0 0 0 0 0 0 0 0
145 185 151 31 0 0 0 0 0 0 0 0 0 0 0 0 0 0 0 0 0 0 0 0 0 0 0 0 0 0 0 0

GFSFLT2_con_mlcape_045.txt.gz
CAPE
107 55 35 39 242 53 73 79 145 174 119 79 48 14 10 0 0 0 0 0 0 0 0 0 0 0 0 0 0 0 0 0
2 0 13 22 246 160 78 130 164 177 84 8 0 0 0 0 0 0 0 0 0 0 0 0 0 0 0 0 0 0 0 0
0 1 6 46 248 291 131 142 135 57 29 0 0 0 0 0 0 0 0 0 0 0 0 0 0 0 0 0 0 0 0 0
0 0 0 18 180 142 107 80 67 16 1 0 0 0 0 0 0 0 0 0 0 0 0 0 0 0 0 0 0 0 0 0
9 0 0 31 27 15 8 44 1 0 0 0 0 0 0 0 0 0 0 0 0 0 0 0 0 0 0 0 0 0 0 0
0 0 0 23 11 45 31 7 0 0 0 0 0 0 0 0 0 0 0 0 0 0 0 0 0 0 0 0 0 0 0 0
2 34 60 45 40 33 8 0 0 0 0 0 0 0 0 0 0 0 0 0 0 0 0 0 0 0 0 0 0 0 0 0
14 54 55 106 22 0 0 0 0 0 0 18 54 27 0 0 0 0 0 0 0 0 0 0 0 0 0 0 0 0 0 0
0 17 125 67 9 0 0 0 0 0 0 1 41 11 0 0 0 0 0 0 0 0 0 0 0 0 0 0 0 0 0 0
0 10 98 59 0 0 0 0 4 58 69 34 6 0 0 0 0 0 0 0 0 0 0 0 0 0 0 0 0 0 0 0
0 1 142 76 0 0 0 0 46 63 0 0 0 0 0 0 0 0 0 0 0 0 0 0 0 0 0 0 0 0 0 0
0 0 111 166 0 0 0 0 26 15 1 0 0 0 0 0 0 0 0 0 0 0 0 0 0 0 0 0 0 0 0 0
8 52 117 115 10 0 0 0 0 0 0 0 0 0 0 0 0 0 0 0 0 0 0 0 0 0 0 0 0 0 0 0
34 61 132 139 57 0 0 0 3 0 0 0 0 0 0 0 0 0 0 0 0 0 0 0 0 0 0 0 0 0 0 0
61 96 142 191 89 3 0 0 0 0 0 0 0 0 0 0 0 0 0 0 0 0 0 0 0 0 0 0 0 0 0 0
37 103 94 127 81 38 0 0 6 0 0 0 0 0 0 0 0 0 0 0 0 0 0 0 0 0 0 0 0 0 0 0
107 92 81 68 59 65 0 0 0 0 0 0 0 0 0 0 0 0 0 0 0 0 0 0 0 0 0 0 0 0 0 0
192 95 100 74 51 27 1 0 0 0 0 0 0 0 0 0 0 0 0 0 0 0 0 0 0 0 0 0 0 0 0 0
267 204 125 93 37 32 1 0 0 0 0 0 0 0 0 0 0 0 0 0 0 0 0 0 0 0 0 0 0 0 0 0
350 244 256 143 80 101 10 0 0 0 0 0 0 0 0 0 0 0 0 0 0 0 0 0 0 0 0 0 0 0 0 0

GFSFLT2_con_mlcape_048.txt.gz
CAPE
66 120 40 22 14 165 180 148 160 166 163 119 80 51 28 13 1 0 1 0 0 0 0 0 0 0 0 0 0 0 0 0
0 0 0 45 57 172 294 214 202 222 128 71 38 17 8 0 0 0 0 0 0 0 0 0 0 0 0 0 0 0 0 0
2 0 0 0 29 141 321 230 179 64 69 41 0 0 0 0 0 0 0 0 0 0 0 0 0 0 0 0 0 0 0 0
3 4 0 0 40 110 275 250 131 45 35 5 19 10 0 0 0 0 0 0 0 0 0 0 0 0 0 0 0 0 0 0
1 0 1 2 28 113 279 219 182 56 108 39 60 36 0 0 0 0 0 0 0 0 0 0 0 0 0 0 0 0 0 0
1 0 7 23 3 47 65 12 1 18 103 108 85 30 0 0 0 0 0 0 0 0 0 0 0 0 0 0 0 0 0 0
10 22 23 12 14 69 43 118 30 18 89 84 13 0 0 0 2 0 0 0 0 0 0 0 0 0 0 0 0 0 0 0
0 14 6 8 23 40 99 87 40 72 8 59 155 0 2 0 9 0 0 0 0 0 0 0 0 0 0 0 0 0 0 0
11 7 4 0 28 130 75 29 2 6 76 269 311 199 52 0 4 0 0 0 0 0 0 0 0 0 0 0 0 0 0 0
34 27 21 62 50 2 7 0 40 96 258 424 485 427 267 54 5 0 0 0 0 0 0 0 0 0 0 0 0 0 0 0
34 93 130 221 168 0 3 7 113 342 504 453 441 280 71 28 0 0 0 0 0 0 0 0 0 0 0 0 0 0 0 0
64 100 283 422 194 32 0 8 100 395 497 402 265 68 0 0 0 0 0 0 0 0 0 0 0 0 0 0 0 0 0 0
53 184 326 461 211 14 0 0 100 398 469 370 180 15 0 0 0 0 0 0 0 0 0 0 0 0 0 0 0 0 0 0
82 109 197 505 362 55 1 0 50 126 302 318 166 15 0 0 0 0 0 0 0 0 0 0 0 0 0 0 0 0 0 0
138 98 210 447 433 205 36 30 134 198 165 12 0 0 0 0 0 0 0 0 0 0 0 0 0 0 0 0 0 0 0 0
220 246 316 502 596 359 60 1 24 149 260 112 0 0 0 0 0 0 0 0 0 0 0 0 0 0 0 0 0 0 0 0
236 234 315 479 609 605 281 22 2 284 389 115 0 0 0 0 0 0 0 0 0 0 0 0 0 0 0 0 0 0 0 0
661 414 395 447 526 560 580 412 180 225 200 88 0 0 0 0 0 0 0 0 0 0 0 0 0 0 0 0 0 0 0 0
983 741 553 514 528 523 642 676 596 344 162 91 0 0 0 0 0 0 0 0 0 0 0 0 0 0 0 0 0 0 0 0
1259 906 747 601 628 607 738 730 489 465 309 121 0 0 0 0 0 0 0 0 0 0 0 0 0 0 0 0 0 0 0 0

GFSFLT2_con_mlcape_051.txt.gz
CAPE
138 109 39 55 66 35 68 109 168 220 236 182 122 100 121 267 275 173 39 0 0 0 0 0 0 0 0 0 0 0 0 0
11 0 56 65 114 66 135 147 190 220 197 129 87 46 46 106 77 36 0 0 0 0 0 0 0 0 0 0 0 0 0 0
1 1 0 43 66 49 132 270 252 161 119 47 25 6 0 7 29 17 0 0 0 0 0 0 0 0 0 0 0 0 0 0
2 0 6 30 51 3 69 333 216 160 85 41 52 30 68 9 17 0 0 0 0 0 0 0 0 0 0 0 0 0 0 0
0 0 0 0 10 21 40 168 172 121 83 130 60 94 54 72 1 0 0 0 0 0 0 0 0 0 0 0 0 0 0 0
2 0 0 5 0 0 21 132 173 139 202 175 194 147 90 80 8 0 0 0 0 0 0 0 0 0 0 0 0 0 0 0
0 0 3 2 24 25 62 66 41 57 165 201 193 131 108 82 94 47 7 4 0 0 0 0 0 0 0 0 0 0 0 0
4 15 1 14 8 4 65 69 111 122 209 205 173 162 118 65 94 56 56 29 12 0 0 0 0 0 0 0 0 0 0 0
0 0 3 7 0 9 13 43 156 211 134 159 253 126 103 67 111 110 81 34 5 0 0 0 0 0 0 0 0 0 0 0
1 0 5 0 2 6 15 139 102 58 57 233 286 187 141 151 119 76 54 12 0 0 0 0 0 0 0 0 0 0 0 0
2 1 0 0 17 38 123 19 0 0 51 256 365 469 473 355 216 112 48 0 0 0 0 0 0 0 0 0 0 0 0 0
1 12 11 30 82 6 4 20 0 39 245 399 491 585 539 466 215 114 29 0 0 0 0 0 0 0 0 0 0 0 0 0
66 79 77 103 100 14 0 0 18 72 242 398 416 423 366 285 165 65 4 0 0 0 0 0 0 0 0 0 0 0 0 0
104 90 112 274 208 70 2 0 1 12 143 346 407 342 282 230 120 0 2 0 0 0 0 0 0 0 0 0 0 0 0 0
210 219 329 348 364 225 36 1 1 29 129 335 372 438 334 148 105 11 0 0 0 0 0 0 0 0 0 0 0 0 0 0
216 227 238 270 316 316 129 3 0 3 72 235 386 278 89 7 9 1 0 0 0 0 0 0 0 0 0 0 0 0 0 0
336 257 207 222 359 353 348 121 4 54 187 334 478 270 76 20 0 0 0 0 0 0 0 0 0 0 0 0 0 0 0 0
389 321 264 260 384 491 514 369 160 20 279 456 457 364 186 6 0 0 0 0 0 0 0 0 0 0 0 0 0 0 1 0
774 507 270 293 401 528 608 623 529 317 199 563 366 242 89 0 0 0 0 0 0 0 0 0 0 0 0 0 0 0 0 0
1032 913 765 440 453 611 837 826 940 885 734 589 514 446 274 0 0 0 0 0 0 0 0 0 0 0 0 0 0 0 0 0

GFSFLT2_con_mlcape_054.txt.gz
CAPE
347 191 153 151 134 292 297 328 344 344 302 225 358 512 516 462 397 170 7 0 0 0 0 0 0 0 0 0 0 0 0 0
90 1 0 1 24 89 210 260 347 271 131 153 290 391 365 317 216 29 0 0 0 0 0 0 0 0 0 0 0 0 0 0
45 0 0 0 0 17 217 302 295 148 85 84 179 225 181 95 60 4 0 0 0 0 0 0 0 0 0 0 0 0 0 0
4 1 0 0 1 0 23 202 241 124 48 16 46 59 109 101 46 5 0 0 0 0 0 0 0 0 0 0 0 0 0 0
1 1 6 0 0 12 22 30 161 157 136 118 137 118 71 35 12 4 0 0 0 0 0 0 0 0 0 0 0 0 0 0
2 0 1 1 3 1 0 0 100 156 155 205 192 142 71 13 4 0 0 0 0 0 0 0 0 0 0 0 0 0 0 0
2 3 0 0 6 10 4 41 100 74 204 226 275 201 142 35 60 3 0 0 0 0 0 0 0 0 0 0 0 0 0 0
4 0 6 4 0 0 2 45 92 154 196 221 227 171 210 155 183 83 8 8 0 0 0 0 0 0 0 0 0 0 0 0
1 1 7 4 0 16 37 67 116 156 140 234 188 220 212 196 195 132 64 38 30 0 0 0 0 0 0 0 0 0 0 0
0 0 0 0 0 0 2 45 114 127 156 137 213 233 162 143 104 188 134 59 13 0 0 0 0 0 0 0 0 0 0 0
0 0 0 0 0 0 2 6 12 106 95 159 205 210 227 113 257 170 111 24 0 0 0 0 0 0 0 0 0 0 0 0
0 0 0 0 0 0 1 4 69 9 0 86 216 288 355 355 273 223 76 3 0 0 0 0 0 0 0 0 0 0 0 0
0 0 0 0 13 0 0 22 11 0 7 95 349 281 352 298 321 194 54 5 0 0 0 0 0 0 0 0 0 0 0 0
0 0 0 0 0 1 0 0 0 1 1 295 372 377 439 448 301 129 57 20 6 0 0 0 0 0 0 0 0 0 0 0
0 0 0 0 0 59 39 0 0 4 31 189 204 320 265 341 279 164 59 21 0 0 0 0 0 0 0 0 0 0 0 0
124 155 162 122 172 194 121 0 0 1 0 150 258 405 318 313 229 176 41 5 0 0 0 0 0 0 0 0 0 0 0 0
187 242 208 203 289 350 271 72 1 0 30 46 352 459 392 314 138 65 21 0 0 0 0 0 0 0 0 0 0 0 0 0
296 307 278 272 489 508 426 291 107 59 92 167 406 438 289 134 92 45 1 0 0 0 0 0 0 0 0 0 0 0 0 0
409 389 373 308 301 445 337 430 428 146 162 280 423 445 342 216 128 18 0 0 0 0 0 0 0 0 0 0 0 0 0 0
439 461 465 448 354 445 657 494 532 507 382 310 393 469 377 235 85 2 0 0 0 0 0 0 0 0 0 0 0 0 0 0

GFSFLT2_con_mlcape_057.txt.gz
CAPE
587 463 412 273 129 89 106 387 418 421 513 683 580 573 541 229 37 0 0 0 0 0 0 0 0 0 0 0 0 0 0 0
202 222 131 40 8 39 66 280 311 229 357 499 483 528 494 237 27 0 0 0 0 0 0 0 0 0 0 0 0 0 0 0
106 0 0 0 0 0 54 256 181 159 393 379 314 278 234 202 43 12 0 0 0 0 0 0 0 0 0 0 0 0 0 0
28 1 0 0 0 0 23 93 78 79 142 122 143 113 172 156 78 24 0 0 0 0 0 0 0 0 0 0 0 0 0 0
2 2 0 0 0 0 0 0 28 17 26 45 75 115 168 120 56 18 0 0 0 0 0 0 0 0 0 0 0 0 0 0
1 2 0 0 0 0 0 0 2 33 26 66 102 72 70 10 15 1 0 0 0 0 0 0 0 0 0 0 0 0 0 0
1 0 0 0 0 13 3 11 31 50 101 93 119 27 1 5 7 0 0 0 0 0 0 0 0 0 0 0 0 0 0 0
0 1 0 0 0 3 0 17 17 39 115 171 161 0 2 19 22 0 0 0 0 0 0 0 0 0 0 0 0 0 0 0
0 0 0 0 0 0 0 4 0 13 90 134 167 171 150 60 80 26 1 0 0 0 0 0 0 0 0 0 0 0 0 0
2 0 0 0 0 0 0 0 3 14 56 128 149 130 167 161 168 129 46 3 0 0 0 0 0 0 0 0 0 0 0 0
4 0 0 0 0 0 0 6 22 53 69 46 58 102 173 78 112 96 159 36 0 0 0 0 0 0 0 0 0 0 0 0
0 0 0 0 0 0 0 0 12 14 0 4 47 97 126 119 58 160 72 4 0 0 0 0 0 0 0 0 0 0 0 0
0 0 0 0 0 0 0 0 0 0 0 0 28 89 68 194 180 148 55 3 0 0 0 0 0 0 0 0 0 0 0 0
0 0 0 0 0 0 0 0 0 0 0 0 0 58 145 241 193 131 62 0 0 0 0 0 0 0 0 0 0 0 0 0
0 0 0 0 0 0 0 0 0 0 0 0 76 198 191 181 193 145 58 2 0 0 0 0 0 0 0 0 0 0 0 0
0 0 0 0 0 0 0 0 0 0 0 0 0 159 168 232 235 168 86 43 2 0 0 0 0 0 0 0 0 0 0 0
0 0 0 0 0 0 0 0 0 0 0 0 0 78 125 214 190 216 110 30 0 0 0 0 0 0 0 0 0 0 0 0
0 0 0 0 0 0 2 55 0 0 0 0 11 151 178 186 181 145 75 29 5 0 0 0 0 0 0 0 0 0 0 0
9 6 21 24 19 23 44 79 130 13 0 0 1 83 194 218 191 90 43 5 0 1 0 0 0 0 0 0 0 0 0 0
58 24 43 55 51 93 123 125 197 120 22 16 67 98 135 188 102 86 31 9 0 0 0 0 0 0 0 0 0 0 0 0

GFSFLT2_con_mlcape_060.txt.gz
CAPE
434 415 266 177 78 8 49 414 411 666 578 488 336 90 40 0 0 0 0 0 0 0 0 0 0 0 0 0 0 0 0 0
396 354 254 36 3 0 0 111 293 571 562 462 329 98 32 0 0 0 0 0 0 0 0 0 0 0 0 0 0 0 0 0
298 180 47 0 2 8 9 164 293 406 293 272 293 129 7 0 0 0 0 0 0 0 0 0 0 0 0 0 0 0 0 0
86 1 0 1 33 14 91 89 163 195 115 154 145 104 3 0 0 0 0 0 0 0 0 0 0 0 0 0 0 0 0 0
3 2 0 2 11 24 8 5 61 91 55 61 116 106 12 0 0 0 0 0 0 0 0 0 0 0 0 0 0 0 0 0
2 1 0 0 0 0 1 4 2 9 19 41 63 46 3 0 0 0 0 0 0 0 0 0 0 0 0 0 0 0 0 0
1 0 0 0 0 0 0 1 0 0 18 24 35 12 0 0 0 0 0 0 0 0 0 0 0 0 0 0 0 0 0 0
3 2 0 0 0 0 0 0 19 25 27 1 5 0 0 0 0 0 0 0 0 0 0 0 0 0 0 0 0 0 0 0
2 0 0 0 0 0 0 0 19 18 45 8 0 0 0 0 0 0 0 0 0 0 0 0 0 0 0 0 0 0 0 0
2 2 0 0 0 0 0 11 3 25 72 83 25 36 3 0 2 1 0 0 0 0 0 0 0 0 0 0 0 0 0 0
2 0 0 0 0 0 0 4 0 11 15 53 89 114 113 77 32 55 28 3 0 0 0 0 0 0 0 0 0 0 0 0
0 0 0 0 0 0 0 0 0 0 6 14 68 106 138 108 70 71 73 29 0 0 0 0 0 0 0 0 0 0 0 0
0 0 0 0 0 0 0 0 0 0 3 0 6 10 42 118 90 64 71 37 0 0 0 0 0 0 0 0 0 0 0 0
0 0 0 0 0 0 0 0 0 0 5 2 0 21 77 45 20 83 50 27 0 0 0 0 0 0 0 0 0 0 0 0
0 0 0 0 0 0 0 0 0 0 0 0 0 0 0 17 17 54 57 24 7 0 0 0 0 0 0 0 0 0 0 0
0 0 0 0 0 0 0 0 0 0 0 0 0 0 0 0 5 62 71 7 0 0 0 0 0 0 0 0 0 0 0 0
0 0 0 0 0 0 0 0 0 0 0 0 0 0 0 15 70 64 27 18 4 0 0 0 0 0 0 0 0 0 0 0
0 0 0 0 0 0 0 0 0 0 0 0 0 0 0 0 49 85 48 31 23 9 0 0 0 0 0 0 0 0 0 0
0 0 0 0 0 0 0 0 0 0 0 0 0 0 0 0 4 48 31 25 21 6 0 0 0 0 0 0 0 0 0 0
0 0 0 0 0 0 0 0 0 0 0 0 0 0 6 30 27 63 45 5 1 11 0 0 0 0 0 0 0 0 0 0

GFSFLT2_con_mlcape_063.txt.gz
CAPE
357 150 289 89 15 0 0 2 199 304 327 316 190 20 0 0 0 0 0 0 0 0 0 0 0 0 0 0 0 0 0 0
262 141 142 17 19 4 0 0 132 264 300 280 116 0 0 0 0 0 0 0 0 0 0 0 0 0 0 0 0 0 0 0
254 112 41 2 0 0 0 4 85 198 183 154 103 4 0 0 0 0 0 0 0 0 0 0 0 0 0 0 0 0 0 0
164 44 12 2 1 0 0 3 36 64 115 128 100 1 0 0 0 0 0 0 0 0 0 0 0 0 0 0 0 0 0 0
18 7 3 3 3 4 0 0 0 8 43 110 22 0 0 0 0 0 0 0 0 0 0 0 0 0 0 0 0 0 0 0
1 1 3 4 6 1 7 32 63 62 73 90 26 1 0 0 0 0 0 0 0 0 0 0 0 0 0 0 0 0 0 0
0 2 2 2 3 6 9 8 22 60 61 66 20 0 0 0 0 0 0 0 0 0 0 0 0 0 0 0 0 0 0 0
0 1 0 0 0 0 0 0 21 39 44 60 4 0 0 0 0 0 0 0 0 0 0 0 0 0 0 0 0 0 0 0
0 0 0 0 0 9 0 2 9 39 37 49 4 0 0 0 0 0 0 0 0 0 0 0 0 0 0 0 0 0 0 0
2 3 1 0 0 0 0 22 31 47 68 53 9 0 0 0 0 0 0 0 0 0 0 0 0 0 0 0 0 0 0 0
2 1 0 0 0 1 6 13 29 50 68 50 26 12 3 0 0 0 0 0 0 0 0 0 0 0 0 0 0 0 0 0
1 2 1 0 0 1 8 7 10 30 52 43 46 31 20 9 19 17 0 0 0 0 0 0 0 0 0 0 0 0 0 0
0 1 0 0 0 0 10 15 9 7 27 60 98 106 124 119 110 63 73 77 45 2 0 0 0 0 0 0 0 0 0 0
1 0 0 0 0 0 0 0 0 1 6 21 21 52 70 110 88 70 48 47 14 0 0 0 0 0 0 0 0 0 0 0
1 0 0 0 0 0 0 0 0 0 0 2 4 14 23 31 20 45 14 15 30 7 0 0 0 0 0 0 0 0 0 0
1 0 0 0 0 0 0 0 0 0 0 0 0 12 5 0 2 26 14 0 6 2 0 0 0 0 0 0 0 0 0 0
0 0 0 0 0 0 0 0 0 0 0 0 0 0 0 0 0 0 0 0 11 9 0 0 0 0 0 0 0 0 0 0
0 0 0 0 0 0 0 0 0 0 0 0 0 0 0 0 0 0 0 1 17 21 0 0 0 0 0 0 0 0 0 0
0 0 0 0 0 0 0 0 0 0 0 0 0 0 0 0 0 0 0 1 43 23 0 0 0 0 0 0 0 0 0 0
0 0 0 0 0 0 0 0 0 0 0 0 0 0 0 0 0 0 0 0 0 0 0 0 1 0 0 0 0 0 0 0

GFSFLT2_con_mlcape_066.txt.gz
CAPE
364 270 280 142 26 116 69 28 141 272 230 139 72 67 77 14 0 0 0 0 0 0 0 0 0 0 0 0 0 0 0 0
361 130 83 3 3 6 5 0 12 180 275 152 92 51 0 0 0 0 0 0 0 0 0 0 0 0 0 0 0 0 0 0
178 43 4 3 0 2 2 47 49 210 222 170 82 0 0 0 0 0 0 0 0 0 0 0 0 0 0 0 0 0 0 0
74 28 29 4 6 3 0 28 33 56 143 165 30 0 0 0 0 0 0 0 0 0 0 0 0 0 0 0 0 0 0 0
67 20 2 2 1 0 0 11 7 57 121 122 1 0 0 0 0 0 0 0 0 0 0 0 0 0 0 0 0 0 0 0
6 2 3 1 0 0 0 0 7 15 38 97 0 0 0 0 0 0 0 0 0 0 0 0 0 0 0 0 0 0 0 0
0 4 3 6 2 0 0 0 0 1 0 54 1 0 0 0 0 0 0 0 0 0 0 0 0 0 0 0 0 0 0 0
1 0 4 4 3 3 2 25 0 9 2 37 14 0 0 0 0 0 0 0 0 0 0 0 0 0 0 0 0 0 0 0
0 1 1 0 4 6 13 21 1 25 37 9 5 0 0 0 0 0 0 0 0 0 0 0 0 0 0 0 0 0 0 0
1 1 0 0 19 0 1 27 38 41 15 11 2 1 0 0 0 0 0 0 0 0 0 0 0 0 0 0 0 0 0 0
1 1 0 0 0 0 0 5 5 4 28 37 19 12 1 0 0 0 0 0 0 0 0 0 0 0 0 0 0 0 0 0
1 1 1 1 1 0 0 0 0 3 24 43 23 13 1 0 0 0 0 0 0 0 0 0 0 0 0 0 0 0 0 0
0 0 2 2 0 1 0 0 0 4 34 36 27 17 15 5 0 0 1 1 8 3 0 0 0 0 0 0 0 0 0 0
0 1 0 0 0 0 0 0 0 5 11 28 31 36 30 41 14 45 81 90 52 20 4 0 0 0 0 0 0 0 0 0
0 0 0 0 0 0 0 0 0 7 23 21 38 74 84 89 105 68 73 81 114 54 2 7 3 0 0 0 0 0 0 0
0 0 0 0 0 0 0 0 5 0 0 0 18 28 35 44 64 73 69 62 61 28 1 0 0 0 0 0 0 0 0 0
0 0 0 0 0 0 0 0 0 0 0 0 0 0 2 1 17 5 0 19 43 29 14 0 0 0 0 0 0 0 0 0
1 1 0 0 0 0 0 0 0 0 0 0 0 0 0 0 0 0 1 0 0 1 0 0 0 0 0 0 0 0 0 0
0 0 0 0 0 0 0 0 0 0 0 0 0 0 0 0 0 0 0 0 0 0 0 0 0 0 0 0 0 0 0 0
0 0 0 0 0 0 0 0 0 0 0 0 0 0 0 0 0 0 0 0 0 0 0 0 0 0 0 0 0 0 0 0

GFSFLT2_con_mlcape_069.txt.gz
CAPE
611 631 648 511 540 337 236 365 474 351 206 244 152 93 86 35 0 0 89 69 0 0 0 0 0 0 0 0 0 0 0 0
410 570 405 389 372 199 54 138 195 125 205 190 130 125 81 0 0 0 98 49 0 0 0 0 0 0 0 0 0 0 0 0
451 391 151 123 151 144 30 8 20 34 129 184 141 164 27 0 0 16 48 0 0 0 0 0 0 0 0 0 0 0 0 0
206 109 25 66 8 1 0 1 0 5 81 121 133 60 1 0 0 0 5 2 0 0 0 0 0 0 0 0 0 0 0 0
70 69 40 29 52 30 19 7 0 3 35 122 57 14 0 0 0 0 10 0 0 0 0 0 0 0 0 0 0 0 0 0
82 23 33 8 18 3 21 9 32 43 56 116 36 0 0 0 0 0 0 4 11 0 0 0 0 0 0 0 0 0 0 0
1 8 1 1 1 0 3 0 0 26 97 62 0 0 0 0 0 0 0 0 0 0 0 0 0 0 0 0 0 0 0 0
1 3 3 3 2 1 2 3 32 57 82 38 3 0 0 0 0 0 0 0 0 0 0 0 0 0 0 0 0 0 0 0
3 3 2 1 0 0 0 3 14 37 61 34 0 0 0 0 0 0 0 0 0 0 0 0 0 0 0 0 0 0 0 0
4 2 2 4 0 0 4 17 16 45 52 52 16 6 0 0 0 0 0 0 0 0 0 0 0 0 0 0 0 0 0 0
2 1 1 3 1 3 2 32 21 17 15 13 17 0 0 0 0 0 0 0 0 0 0 0 0 0 0 0 0 0 0 0
1 0 1 0 1 1 0 8 26 12 7 14 19 9 1 0 0 0 0 1 0 0 0 0 0 0 0 0 0 0 0 0
2 0 1 0 0 3 0 0 0 16 4 17 21 12 1 0 0 0 0 0 0 4 2 0 0 0 0 0 0 0 0 0
2 1 1 1 1 0 0 0 0 0 0 0 1 22 10 0 0 0 0 0 6 4 8 16 4 0 0 0 0 0 0 0
2 2 1 1 1 0 1 0 0 0 0 0 0 21 21 17 1 7 7 7 13 30 23 21 84 2 0 16 5 1 0 0
3 2 1 3 0 0 0 0 0 0 0 0 0 15 30 47 44 53 64 103 123 63 52 84 89 84 0 0 0 0 0 0
3 3 2 0 1 0 0 1 0 0 0 0 0 1 27 57 72 58 57 50 72 82 81 45 54 68 9 0 0 0 0 0
3 0 0 0 0 0 0 0 0 0 0 0 0 2 12 21 34 43 55 45 43 74 64 57 26 10 9 0 0 0 0 0
0 1 0 1 1 0 0 0 0 0 0 0 0 0 0 1 19 26 21 3 6 10 9 12 15 16 0 0 0 0 0 0
0 0 0 2 1 0 0 0 0 0 0 0 0 0 0 0 0 0 1 0 4 0 3 6 14 12 0 0 0 0 0 2

GFSFLT2_con_mlcape_072.txt.gz
CAPE
1087 733 681 614 729 511 482 995 908 774 719 489 483 285 219 193 180 138 129 0 0 0 0 0 0 0 0 0 0 0 0 0
621 743 595 454 552 311 385 471 593 587 525 354 222 224 128 76 112 155 166 0 0 0 0 0 0 0 0 0 0 0 0 0
464 596 672 726 422 231 83 127 223 144 173 166 147 172 112 69 53 183 94 0 0 0 0 0 0 0 0 0 0 0 0 0
562 634 621 257 295 140 66 105 170 35 34 54 109 172 115 0 118 171 73 0 0 0 0 0 0 0 0 0 0 0 0 0
320 110 82 58 81 36 49 9 0 26 60 37 123 151 25 29 172 158 16 0 0 0 0 0 0 0 0 0 0 0 0 0
160 115 41 47 2 3 0 0 4 1 7 48 162 75 16 58 114 70 0 0 0 0 0 0 0 0 0 0 0 0 0 0
117 86 42 0 19 16 1 2 0 11 48 65 128 33 8 9 91 117 38 71 15 0 0 0 0 0 0 0 0 0 0 0
19 3 19 1 10 11 8 4 2 10 55 85 123 44 5 0 23 51 89 131 45 0 0 0 0 0 0 0 0 0 0 0
4 2 1 0 1 1 1 15 34 19 39 59 74 50 11 18 12 11 1 9 0 0 0 0 0 0 0 0 0 0 0 0
5 3 2 3 2 2 4 9 17 25 35 39 19 22 22 3 4 0 0 3 0 0 0 0 0 0 0 0 0 0 0 0
3 4 2 3 3 2 4 1 15 58 37 14 6 15 7 5 12 1 3 0 0 0 0 0 0 0 0 0 0 0 0 0
2 3 4 3 3 4 5 13 18 42 41 13 2 25 16 7 0 19 21 3 1 0 0 0 0 0 0 0 0 0 0 0
4 1 0 3 3 2 2 2 13 20 24 43 39 40 18 0 0 26 62 38 48 50 32 12 1 0 0 0 0 0 0 0
7 1 1 2 2 3 3 4 19 18 16 6 12 39 10 25 4 32 68 102 136 112 77 51 95 10 44 101 70 17 0 0
6 3 3 3 11 14 5 0 1 1 2 4 4 16 31 15 0 0 4 78 98 112 89 128 169 54 61 120 164 104 118 2
3 0 5 3 2 1 3 4 1 3 1 1 8 7 28 27 0 0 1 36 85 135 130 177 188 114 69 78 123 124 80 45
2 2 9 3 3 2 0 5 0 0 0 0 0 8 29 23 3 1 0 14 34 70 89 153 209 97 150 113 51 27 3 16
1 1 2 5 5 4 2 1 1 2 1 2 2 1 7 12 17 9 8 30 70 47 76 122 121 103 56 138 155 118 76 27
0 0 0 4 8 8 2 3 4 3 0 0 0 1 1 0 5 3 9 20 16 32 53 40 112 71 64 126 172 155 149 35
0 0 0 0 3 5 6 9 13 4 0 0 0 0 0 0 0 0 1 16 6 18 57 81 77 126 121 89 111 95 138 16

GFSFLT2_con_mlcape_075.txt.gz
CAPE
1362 1140 414 193 133 25 0 239 587 1034 1088 948 784 442 125 55 88 106 33 0 0 2 0 0 0 0 0 0 0 0 0 0
1181 1061 774 611 352 228 204 195 270 481 728 780 562 202 223 195 207 115 16 0 0 0 0 0 0 0 0 0 0 0 1 0
543 1012 853 669 491 354 170 142 217 233 384 294 99 123 168 176 238 125 25 0 0 0 0 0 0 0 0 0 0 4 2 0
825 797 706 633 367 147 58 224 270 189 138 20 13 40 204 222 254 113 0 0 0 0 0 0 0 0 0 0 1 4 4 0
663 749 645 512 302 219 133 123 146 114 5 0 0 37 172 151 221 80 0 0 0 0 0 0 0 0 0 0 0 0 7 0
527 245 108 21 1 1 69 92 55 2 0 0 40 32 125 222 133 40 0 0 0 0 0 0 0 0 0 0 0 4 4 0
409 202 50 16 0 0 1 2 0 4 9 12 41 36 93 165 123 32 0 0 0 0 2 0 0 0 0 1 2 6 1 0
140 239 23 8 1 0 0 0 0 9 30 24 45 50 109 157 132 98 22 9 0 0 1 0 0 0 0 1 3 3 7 1
25 7 29 1 4 1 1 0 0 0 0 21 27 71 143 154 183 199 124 109 37 8 0 0 0 0 0 0 0 1 4 6
2 6 2 2 4 1 2 1 0 6 32 37 52 109 95 138 150 189 180 148 68 6 0 0 0 0 0 0 0 0 0 4
6 2 2 2 2 3 3 2 4 5 34 39 71 97 96 78 54 62 92 73 41 1 0 0 0 0 0 0 0 0 0 0
6 2 3 2 2 3 5 10 11 5 19 27 54 94 90 61 52 58 34 35 2 0 3 0 0 0 0 0 0 0 0 0
14 1 5 3 2 3 3 3 1 0 3 9 23 46 63 60 58 65 53 9 0 19 12 4 1 0 0 0 0 0 0 0
10 6 7 3 2 3 2 2 1 6 10 5 2 39 25 19 31 57 68 24 53 64 74 54 21 0 0 13 11 2 0 0
7 7 2 4 8 5 5 5 11 18 35 15 0 21 40 10 10 44 82 101 117 122 133 122 93 53 59 83 49 75 119 41
5 8 4 3 8 2 0 0 3 4 2 1 7 8 30 35 34 37 90 103 135 184 190 165 54 30 41 100 156 208 27 56
0 1 14 2 8 6 1 2 1 2 3 6 2 0 20 51 18 1 8 31 64 147 136 121 120 36 25 86 117 114 139 24
0 2 9 8 1 16 6 14 3 3 2 1 2 0 1 13 3 4 0 0 2 26 48 25 33 62 34 92 23 61 96 104
0 0 1 1 6 10 10 10 10 3 7 2 2 0 0 0 11 3 0 0 0 2 7 10 22 8 31 33 48 85 117 77
0 0 0 0 3 6 6 3 4 8 2 0 6 2 1 0 0 0 0 0 5 14 14 28 32 24 45 80 34 58 91 94

GFSFLT2_con_mlcape_078.txt.gz
CAPE
1392 821 464 272 176 150 13 5 0 42 723 1064 902 691 500 409 313 155 49 0 0 0 0 0 0 0 0 0 0 0 0 0
1355 1472 997 460 247 79 11 27 0 15 395 768 572 484 360 307 121 49 0 0 0 0 0 0 0 0 0 0 0 0 0 0
810 1151 1020 686 574 260 100 2 0 88 363 408 326 331 285 157 66 1 0 0 0 0 0 0 0 0 0 0 0 1 0 0
592 704 804 515 379 256 146 44 130 72 109 176 225 144 110 63 131 35 0 0 0 0 0 0 0 0 0 0 0 9 0 0
809 663 582 383 200 139 43 147 105 67 113 77 54 4 16 73 111 28 2 0 0 0 0 0 0 0 0 0 0 2 0 0
442 524 282 133 56 117 116 62 159 62 5 14 0 0 8 78 65 7 0 0 0 0 0 0 0 0 0 0 0 1 0 0
440 236 35 0 0 0 46 70 97 36 12 5 0 0 6 13 39 0 0 0 0 0 0 0 0 0 0 0 5 1 0 0
296 181 42 2 3 0 0 0 27 2 2 15 0 2 18 0 54 0 1 0 0 0 0 0 0 0 0 0 9 6 0 0
121 213 33 24 4 2 1 0 0 3 0 1 1 13 9 48 50 6 19 2 0 0 0 0 0 0 0 0 0 10 0 0
83 11 45 2 6 0 0 1 1 1 5 4 13 12 26 91 89 69 101 21 0 0 0 0 0 0 0 0 0 3 8 0
3 2 1 5 5 1 0 0 0 1 1 0 0 23 32 72 133 169 152 84 67 2 0 0 0 0 0 0 0 0 0 2
4 3 2 1 2 2 2 0 1 1 0 0 0 0 2 38 51 47 70 93 52 0 3 0 0 0 0 0 0 0 0 0
0 0 2 3 1 2 2 2 1 7 5 3 2 0 19 49 51 42 43 21 14 0 0 0 0 0 0 0 0 0 0 0
3 3 1 2 2 2 2 2 3 2 3 0 0 13 27 26 41 42 48 40 5 14 3 10 4 1 0 0 0 0 0 0
1 4 4 3 3 7 3 3 5 7 8 3 3 13 43 39 56 53 46 34 35 13 22 25 22 1 0 1 24 3 8 0
0 1 4 1 5 2 3 1 2 2 0 2 0 0 14 21 29 66 54 50 64 68 95 127 99 20 0 2 40 95 30 30
0 0 1 6 5 5 5 3 1 0 4 2 0 0 4 15 3 23 30 63 61 94 127 141 114 68 23 26 22 21 28 0
0 0 3 2 3 3 3 6 3 2 2 1 0 0 0 3 9 3 30 61 84 123 128 120 90 58 16 28 5 24 7 5
0 0 1 2 2 4 0 0 1 2 1 0 0 0 0 0 0 0 10 22 38 68 78 87 46 7 2 15 26 27 25 18
0 0 0 1 1 3 1 2 1 2 1 1 0 0 0 0 0 0 0 0 1 1 1 14 18 17 7 15 15 13 37 50

GFSFLT2_con_mlcape_081.txt.gz
CAPE
930 689 455 274 153 102 11 0 0 2 0 4 366 705 569 389 432 436 234 51 28 0 0 0 0 0 0 0 0 0 0 0
1116 801 531 234 140 67 0 0 0 0 0 0 482 500 427 395 420 268 67 17 5 0 0 0 0 0 0 0 0 0 0 0
728 1150 965 431 154 15 4 0 0 7 2 0 342 360 360 315 183 73 2 0 0 0 0 0 0 0 0 0 0 0 0 0
534 734 774 595 523 40 0 0 0 0 6 58 187 221 153 133 73 18 0 0 0 0 0 0 0 0 0 0 0 0 0 0
606 600 484 376 268 137 82 0 0 0 0 79 148 129 77 23 6 1 0 0 0 0 0 0 0 0 0 0 0 0 0 0
751 626 410 313 141 47 71 27 0 2 61 68 47 25 17 2 2 0 0 0 0 0 0 0 0 0 0 0 0 0 0 0
442 284 140 25 3 5 17 37 34 3 52 44 1 6 1 0 0 0 0 0 0 0 0 0 0 0 0 0 0 0 0 0
306 112 2 0 0 0 12 21 21 23 18 4 0 3 13 0 0 0 0 0 0 0 0 0 0 0 0 0 0 0 0 0
197 43 1 0 0 0 0 1 2 3 2 1 0 6 11 0 0 0 0 0 0 0 0 0 0 0 0 0 0 0 0 0
161 42 1 0 0 1 0 0 0 2 3 2 1 1 4 0 0 0 0 0 0 0 1 0 0 0 0 0 0 0 0 0
14 28 4 0 0 0 1 1 2 2 3 3 0 0 19 2 0 0 0 0 0 1 1 0 0 0 0 0 0 0 0 0
0 3 13 7 0 0 0 2 1 0 2 0 0 1 7 20 22 22 25 18 0 0 1 0 0 0 0 0 0 0 0 0
0 2 1 4 5 1 0 1 2 2 0 0 0 10 2 12 19 24 74 47 0 0 0 0 0 0 0 0 0 0 0 0
0 0 2 2 2 2 2 2 2 2 0 0 0 0 0 4 3 7 19 28 10 0 0 0 0 0 0 0 0 0 0 0
0 0 2 2 3 3 2 3 3 5 2 0 0 0 0 0 0 3 1 4 0 0 0 0 0 0 0 0 0 0 0 0
0 0 0 1 5 2 1 2 2 2 0 0 0 1 0 0 0 0 0 2 9 2 0 0 0 0 0 1 11 19 12 2
0 0 1 3 6 3 1 1 1 1 1 0 0 0 0 0 0 0 7 13 2 10 4 19 18 0 0 0 7 24 31 9
0 0 1 1 3 5 1 0 0 2 1 0 0 0 0 0 0 0 0 14 28 10 37 62 45 39 15 0 0 22 26 16
0 0 0 1 1 4 4 0 0 0 0 0 0 0 0 0 0 0 2 11 34 58 57 63 92 68 53 30 22 21 14 22
0 0 0 0 2 3 2 5 0 0 0 0 0 0 0 0 0 0 0 14 32 71 89 90 91 63 28 23 21 11 15 21

GFSFLT2_con_mlcape_084.txt.gz
CAPE
760 666 614 520 270 62 104 71 95 43 2 7 68 10 277 348 405 437 371 267 194 47 3 1 0 0 0 0 0 0 0 0
759 540 479 320 304 164 36 24 0 8 0 0 133 51 164 321 396 406 264 109 34 12 0 0 0 0 0 0 0 0 0 0
796 629 493 272 85 55 2 3 8 0 0 4 15 0 112 173 291 282 155 13 8 0 0 0 0 0 0 0 0 0 0 0
419 776 716 452 159 21 1 8 7 6 0 0 20 128 104 207 202 163 69 0 0 0 0 0 0 0 0 0 0 0 0 0
418 683 675 614 420 44 6 14 0 0 5 1 86 114 141 149 86 42 3 0 0 0 0 0 0 0 0 0 0 0 0 0
448 636 423 394 387 146 12 8 0 0 97 129 98 96 87 40 5 4 0 0 0 0 0 0 0 0 0 0 0 0 0 0
478 464 420 258 138 62 53 1 0 9 51 86 80 52 40 8 5 0 0 0 0 0 0 0 0 0 0 0 0 0 0 0
351 299 102 57 15 1 2 2 0 29 50 59 31 18 2 2 2 0 0 0 0 0 0 0 0 0 0 0 0 0 0 0
183 84 0 0 0 0 0 12 16 25 74 62 32 11 1 0 0 0 0 0 0 0 0 0 0 0 0 0 0 0 0 0
82 20 0 0 0 0 0 1 5 18 10 7 21 11 0 0 0 0 0 0 0 0 0 0 0 0 0 0 0 0 0 0
49 3 0 0 0 0 1 2 3 2 4 1 6 13 0 0 0 0 0 0 0 0 0 0 0 0 0 0 0 0 0 0
13 0 1 0 0 1 1 0 0 2 2 2 4 2 0 0 0 0 0 0 0 0 0 0 0 0 0 0 0 0 0 0
0 0 1 0 0 0 2 3 1 1 2 2 2 7 3 0 0 0 0 0 0 2 0 0 0 0 0 0 0 0 0 0
0 0 2 4 0 0 0 2 2 1 1 1 0 0 0 1 0 0 0 0 2 9 5 0 0 1 0 0 0 0 0 0
0 0 1 1 1 3 1 2 1 0 1 0 0 0 0 1 0 6 12 12 2 9 5 0 2 0 1 0 0 0 0 0
0 0 2 2 2 2 0 1 2 2 1 1 0 0 0 0 2 1 10 20 25 15 3 2 2 0 0 2 0 0 0 0
0 0 0 0 6 1 0 2 1 1 0 0 0 0 0 0 1 3 7 41 30 11 0 0 0 0 0 3 9 23 1 0
0 0 0 0 4 2 1 2 1 0 0 0 0 0 0 0 0 0 1 23 26 0 2 5 10 2 1 0 4 15 21 11
0 0 0 0 5 3 1 0 0 0 0 0 0 0 0 0 0 0 0 1 3 6 15 20 14 3 1 0 0 2 23 20
0 0 0 0 0 5 0 1 0 1 0 0 0 0 0 0 0 0 0 0 0 0 11 20 31 29 22 11 0 6 11 18

GFSFLT2_con_mlcape_087.txt.gz
CAPE
964 1047 1243 1302 1220 1076 763 636 228 54 61 22 10 21 20 3 144 276 354 334 308 308 178 10 2 0 0 0 0 0 0 0
753 709 693 705 662 670 667 334 255 172 103 44 94 56 0 1 75 151 218 337 282 225 33 0 0 0 0 0 0 0 0 0
607 599 457 449 269 94 69 40 27 43 63 80 107 19 34 4 42 79 177 231 226 116 5 0 0 0 0 0 0 0 0 0
558 517 367 345 294 177 53 7 1 11 41 93 127 37 149 35 16 72 117 145 107 31 0 0 0 0 0 0 0 0 0 0
372 629 434 333 189 35 0 0 0 5 24 30 79 35 143 98 104 123 92 59 30 1 0 0 0 0 0 0 0 0 0 0
230 511 478 380 158 0 0 0 0 0 15 36 44 58 32 74 111 80 41 0 0 0 0 0 0 0 0 0 0 0 0 0
232 387 425 374 366 103 2 0 0 0 26 24 37 45 39 110 51 19 3 3 0 0 0 0 0 0 0 0 0 0 0 0
207 338 317 269 244 92 11 1 0 0 44 44 62 85 72 66 2 1 0 0 0 0 0 0 0 0 0 0 0 0 0 0
183 204 157 155 85 23 19 4 1 0 27 61 77 85 35 21 1 0 0 0 0 0 0 0 0 0 0 0 0 0 0 0
96 86 29 1 10 0 2 6 3 11 29 66 69 17 16 3 0 0 0 0 0 0 0 0 0 0 0 0 0 0 0 0
46 17 0 0 0 0 1 0 3 5 28 51 38 3 0 0 0 0 0 0 0 0 0 0 0 0 0 0 0 0 0 0
21 0 0 0 0 0 0 3 2 16 6 3 22 6 0 0 0 0 0 0 0 0 0 0 0 1 0 0 0 0 0 0
9 0 0 0 0 0 4 0 5 3 2 1 2 4 0 0 0 0 0 0 0 0 0 0 0 0 0 0 0 0 0 0
2 0 0 0 0 0 0 0 2 3 1 2 2 2 0 0 0 0 0 0 0 0 0 0 0 0 1 0 0 0 0 0
7 0 0 0 0 1 0 1 1 0 0 1 2 2 1 0 0 0 0 0 0 1 0 0 0 0 0 2 0 2 1 0
10 0 0 0 0 0 0 0 1 1 0 1 0 0 1 0 0 0 0 0 0 7 9 8 6 7 0 0 1 0 16 0
3 0 0 0 0 0 0 0 0 0 0 0 2 0 0 0 0 0 0 0 0 12 24 26 25 15 12 12 7 0 0 0
0 0 2 0 0 0 0 0 0 0 0 0 0 1 0 0 0 0 0 2 0 9 26 14 10 9 9 5 12 21 12 2
0 1 0 1 4 3 0 0 0 1 1 0 1 0 0 0 0 0 0 0 0 8 20 31 6 0 1 2 20 22 22 17
0 0 0 0 1 2 0 0 0 1 0 0 0 0 0 0 0 0 0 0 2 4 0 12 25 7 0 1 6 9 31 35

GFSFLT2_con_mlcape_090.txt.gz
CAPE
1021 1272 1352 1321 1274 1050 677 506 436 363 181 25 12 0 1 7 18 32 165 360 445 449 299 169 75 29 7 0 0 0 0 0
872 976 1113 1089 1087 897 592 364 133 27 33 89 32 3 3 108 22 11 114 245 342 278 117 69 17 1 0 0 0 0 0 0
690 807 745 848 837 782 611 452 163 43 94 182 119 61 94 48 52 57 119 99 171 125 13 18 5 0 0 0 0 0 0 0
621 586 411 319 257 396 366 290 192 103 135 103 128 130 36 33 38 94 68 92 131 13 0 0 6 0 0 0 0 0 0 0
435 482 262 162 155 39 22 11 0 0 0 26 105 63 42 30 46 107 73 75 41 0 0 0 0 0 0 0 0 0 0 0
225 326 310 151 92 63 33 1 0 0 0 7 82 47 73 64 14 63 91 56 0 0 0 0 0 0 0 0 0 0 0 0
92 210 303 158 82 26 9 0 0 0 0 2 40 50 57 115 47 81 58 11 0 0 0 0 0 0 0 0 0 0 0 0
33 99 189 81 100 107 34 0 1 0 0 0 11 60 68 91 92 62 23 3 0 0 0 0 0 0 0 0 0 0 0 0
56 55 95 109 117 76 41 5 0 0 0 5 13 4 58 54 59 6 3 0 0 0 0 0 0 0 0 0 0 0 0 0
86 18 38 22 30 35 19 3 9 4 0 22 28 35 30 22 6 3 0 0 0 0 0 0 0 0 0 0 0 0 0 0
90 0 0 2 0 0 2 4 6 9 2 15 37 13 2 2 1 0 0 0 0 0 0 0 0 0 0 0 0 0 0 0
51 0 0 1 0 0 2 1 5 8 7 30 34 2 3 1 0 0 0 0 0 0 0 0 0 0 0 0 0 0 0 0
26 0 1 1 0 0 3 1 1 1 3 4 19 22 0 0 0 0 0 0 0 0 0 0 0 0 0 0 0 0 0 0
18 0 0 0 0 0 0 2 2 2 4 1 4 0 1 0 0 0 0 0 0 0 0 0 0 0 0 0 0 0 0 0
15 0 1 1 1 1 0 0 0 1 0 3 2 1 1 0 0 0 0 0 0 0 0 0 0 0 0 7 2 1 0 0
9 1 0 1 0 1 1 0 1 0 0 1 2 2 2 3 0 0 0 0 0 0 0 0 0 0 1 2 0 0 13 0
9 2 2 1 0 0 0 0 1 1 0 2 0 1 2 2 0 0 0 0 0 0 0 5 0 0 5 18 8 2 0 1
8 4 0 1 1 1 0 0 0 0 1 0 0 0 2 3 2 0 0 0 0 0 0 13 18 11 17 42 15 1 1 3
1 6 0 0 1 0 0 0 0 0 0 0 1 0 0 2 2 1 0 0 0 0 0 4 9 35 43 36 26 24 20 11
0 7 0 0 1 0 0 0 0 0 0 0 1 0 0 0 1 1 0 0 0 0 0 10 14 0 15 14 7 21 21 28

GFSFLT2_con_mlcape_093.txt.gz
CAPE
1169 1176 1075 1199 1214 1038 1019 865 762 885 799 809 638 432 278 145 116 83 213 209 421 674 507 333 228 106 10 0 0 0 0 0
1017 1096 1133 1446 1252 977 826 716 700 641 600 382 188 61 31 39 60 78 32 138 374 544 332 247 152 30 0 0 0 0 0 0
877 907 958 1228 1081 912 793 605 539 401 266 54 0 7 14 30 41 22 56 46 228 365 228 173 54 4 0 0 0 0 0 0
781 816 973 986 924 868 648 515 301 185 158 155 130 125 134 108 183 134 4 18 110 214 158 80 23 3 0 0 0 0 0 0
598 688 608 766 541 659 503 360 239 71 21 128 315 358 203 134 273 105 71 36 78 152 78 74 11 0 0 0 0 0 0 1
440 568 367 349 277 289 201 225 194 79 86 166 277 82 132 138 93 170 96 67 48 76 110 18 0 0 0 0 0 0 0 4
250 388 446 206 53 4 24 127 76 53 7 6 89 0 135 172 94 204 96 10 1 33 23 0 0 0 0 0 0 0 0 7
193 230 284 183 45 3 17 32 13 1 1 0 22 19 98 154 111 122 72 7 0 8 12 0 0 0 0 0 0 0 0 1
80 125 170 124 64 9 1 23 6 0 1 2 4 65 85 159 97 76 39 3 1 0 0 0 0 0 0 0 0 0 0 1
96 47 39 80 41 7 1 11 3 1 2 3 3 2 57 60 74 21 8 1 0 0 0 0 0 0 0 0 0 0 0 3
125 49 7 13 1 2 0 2 9 10 10 8 9 25 24 57 70 7 2 2 0 0 0 0 0 0 0 0 0 0 0 4
173 29 0 0 1 0 1 4 12 13 17 10 15 20 26 20 2 2 2 2 0 0 0 0 0 0 0 0 0 1 2 6
137 0 0 0 0 1 3 1 5 16 21 26 8 1 2 2 2 2 2 1 0 0 0 0 0 0 0 4 3 2 1 1
52 0 0 0 2 2 1 1 1 7 9 5 4 0 0 0 0 1 0 0 0 0 0 0 0 0 0 1 4 3 1 2
9 0 0 1 1 1 2 4 1 4 9 8 2 0 0 0 0 0 0 0 0 0 0 0 0 0 0 13 4 4 3 1
10 0 0 2 0 1 2 0 2 3 1 4 0 1 0 1 0 0 0 0 0 0 0 0 0 2 4 0 13 13 40 9
11 1 3 3 0 0 1 1 0 5 1 0 4 2 2 1 0 0 0 0 0 0 0 0 1 7 4 7 12 11 19 12
7 1 1 4 1 1 1 0 0 7 2 0 2 1 1 1 1 0 0 0 0 0 0 0 0 9 9 14 16 25 22 15
17 1 0 2 3 3 0 0 1 4 0 0 2 1 2 2 2 2 1 0 0 0 0 0 0 1 0 10 14 33 28 23
23 5 0 1 3 3 1 2 2 6 1 0 1 0 1 1 2 2 1 0 0 0 0 0 0 0 0 8 15 32 41 9

GFSFLT2_con_mlcape_096.txt.gz
CAPE
1418 1376 1094 949 977 1004 906 1036 1116 1016 1160 1242 1206 930 675 506 346 268 194 72 45 112 270 418 282 223 145 83 74 110 139 81
1356 1363 1321 1463 1467 1009 1036 886 857 830 851 859 739 684 510 435 205 112 85 141 136 155 174 226 195 141 96 54 11 42 117 66
1295 1372 1458 1694 1734 1284 933 898 786 701 692 536 417 761 548 315 240 173 111 207 116 52 108 144 133 93 63 44 11 129 67 23
1238 1403 1435 1502 1536 1598 1348 1281 1012 1046 894 580 707 731 619 279 110 8 14 39 42 56 133 71 128 165 78 1 100 67 47 43
1003 1248 1393 1530 1338 1347 1182 1051 892 718 810 658 661 632 431 276 318 394 274 104 71 42 76 97 186 192 63 94 46 36 19 24
873 1011 1147 1261 1211 1041 901 803 578 392 381 665 711 717 654 525 428 432 236 151 129 130 11 94 162 153 143 78 18 30 33 21
935 804 951 1062 1033 817 789 719 545 545 178 269 345 385 324 407 439 287 241 171 166 109 21 120 161 119 86 31 22 15 13 11
1094 715 754 895 785 579 432 437 558 455 327 215 227 319 367 364 267 234 180 163 101 98 89 114 121 83 52 49 25 7 3 6
1200 728 728 680 698 384 454 246 481 317 137 90 86 290 197 106 171 172 109 58 72 50 99 119 77 76 76 48 16 3 4 8
908 842 455 518 579 168 144 223 129 147 57 57 36 87 120 94 96 189 65 20 24 28 63 83 85 85 57 40 4 5 7 10
842 907 421 467 421 183 78 155 2 92 58 39 116 70 50 85 119 107 15 7 1 14 73 82 80 58 58 40 3 12 15 22
719 935 572 269 220 93 65 151 4 87 128 51 115 42 23 34 47 16 1 2 2 3 37 59 70 58 55 36 3 42 30 6
485 915 613 195 78 41 28 54 1 12 75 22 75 23 3 10 53 27 2 2 1 0 66 64 40 58 29 17 13 17 9 3
318 784 327 226 191 151 44 2 5 14 24 14 35 10 0 9 30 2 2 2 2 2 64 41 9 13 13 15 10 15 4 9
185 692 135 203 378 156 9 3 2 15 14 1 0 1 2 1 2 2 2 2 2 11 21 24 16 19 29 19 24 17 11 9
133 582 2 138 249 141 26 0 0 8 1 11 3 3 1 0 0 2 1 2 1 0 10 14 8 15 47 59 26 46 4 14
200 217 3 26 47 242 17 2 0 10 4 19 6 3 3 1 2 2 3 1 0 1 4 2 23 25 16 20 51 62 67 52
433 4 3 12 47 69 20 0 0 15 6 13 2 1 1 1 1 0 0 1 0 0 0 0 4 52 70 82 72 51 80 58
351 3 11 9 7 8 0 0 0 14 8 10 2 1 1 1 2 2 0 0 0 0 0 0 2 24 45 50 74 44 48 43
229 3 50 23 4 2 0 0 0 15 3 7 5 2 2 2 2 3 0 1 0 0 0 0 0 0 14 35 30 35 69 63

GFSFLT2_con_mlcape_099.txt.gz
CAPE
1667 1260 976 795 923 825 892 1008 956 1179 1384 1233 1197 1026 782 675 699 523 406 305 249 94 41 205 173 216 230 193 135 143 193 244
1762 1670 1351 1349 1235 909 823 841 896 901 1025 1013 1005 914 744 615 494 443 262 203 52 9 7 93 127 122 197 173 167 128 150 132
1788 1683 1473 1458 1483 1419 908 815 706 726 816 841 828 1024 759 469 431 271 266 95 59 55 92 64 84 64 145 167 156 273 162 30
1656 1617 1568 1560 1547 1786 1533 1325 1141 966 950 946 729 626 898 673 370 193 336 102 82 94 65 53 47 65 131 114 228 156 103 38
1578 1538 1662 1447 1282 1674 1562 1433 1309 1323 1129 1100 839 608 792 646 415 32 83 110 157 67 44 27 32 93 248 245 269 139 113 59
1560 1506 1565 1532 1334 1220 1306 1370 1340 1261 1272 1045 774 675 694 554 470 475 613 461 163 173 157 56 16 105 206 206 121 85 35 52
1742 1438 1508 1574 1276 1017 1154 1156 1065 967 834 1059 893 818 655 534 475 492 619 527 255 228 83 20 37 86 168 113 59 52 46 41
1722 1458 1359 1477 1335 1210 978 1072 885 968 642 572 721 860 706 626 514 492 585 345 375 146 56 1 30 63 132 101 36 29 17 26
1793 1584 1143 1389 1281 1096 809 691 615 685 786 727 330 436 409 377 575 458 445 267 226 170 32 3 61 77 99 82 10 13 8 6
1227 1654 1004 1182 1230 1030 770 642 585 564 656 765 528 529 268 64 156 183 321 191 204 140 46 43 60 69 85 44 32 2 6 19
677 1681 1470 1041 1006 1029 772 715 638 512 426 423 511 387 366 187 139 298 253 94 118 85 51 55 44 45 78 34 20 1 8 15
249 1309 1597 1160 846 869 436 371 279 484 521 168 99 194 192 184 88 93 95 34 40 30 46 41 39 48 54 23 15 20 21 29
167 970 1485 1177 727 659 433 437 163 326 291 238 126 140 78 42 18 12 3 11 8 14 23 30 35 76 37 30 30 42 19 11
0 518 1237 1222 593 583 510 400 320 443 219 98 46 115 107 28 11 12 2 7 2 7 16 23 39 46 18 11 20 19 21 10
0 30 786 1186 763 700 647 589 261 266 149 137 53 123 32 9 9 9 2 2 2 0 7 32 41 29 12 0 11 14 7 15
0 0 461 1018 866 843 807 431 242 46 56 10 15 4 1 1 2 4 10 1 2 2 12 25 32 32 13 20 0 0 0 32
0 10 466 726 875 944 819 648 325 48 0 5 0 2 1 1 1 1 2 3 2 3 28 32 50 56 29 1 18 39 39 50
0 250 914 576 633 1002 816 697 377 11 0 7 9 2 3 1 2 1 2 2 3 3 55 63 74 57 63 52 17 48 45 59
0 470 851 354 334 801 924 761 324 8 0 5 2 2 2 2 2 2 3 4 2 13 33 59 56 35 29 38 52 38 50 73
58 693 420 32 138 801 839 693 224 5 0 4 4 2 1 2 2 0 0 0 2 0 3 1 14 25 38 36 32 22 72 122

GFSFLT2_con_mlcape_102.txt.gz
CAPE
972 711 732 742 708 741 693 729 942 1104 1207 1265 1253 1112 832 570 703 625 420 194 68 309 81 35 27 100 142 186 161 109 254 234
1657 1353 974 914 857 729 667 707 676 764 947 1144 1151 999 854 731 696 559 439 351 321 72 40 13 38 55 85 69 123 122 199 155
2011 1907 1533 1475 1420 918 684 564 516 524 648 1007 1049 899 766 615 613 489 367 314 207 7 0 5 19 23 27 37 88 167 87 53
2002 1884 1753 1764 1462 1215 1087 1016 698 552 749 872 1050 684 703 551 407 273 216 211 35 2 24 14 38 6 25 24 55 122 48 36
1862 1777 1851 1907 1452 1717 1437 1368 1236 1065 972 941 1067 622 745 489 190 248 116 59 57 76 71 36 27 1 19 29 75 87 44 35
1943 1752 1966 1657 1982 1767 1542 1296 1163 1016 1233 1134 978 656 618 449 300 246 285 152 177 106 98 62 6 0 14 68 95 162 37 13
1711 1704 1730 1810 1724 1208 1235 1188 1305 986 1164 1122 837 677 737 559 417 257 238 221 244 126 103 52 20 4 47 50 166 98 27 27
1719 1750 1668 1754 1849 1405 1161 955 857 1032 819 1099 1178 701 646 529 348 308 344 324 290 204 168 96 23 23 86 57 151 98 36 26
1709 1827 1458 1534 1834 1646 1180 763 1002 1019 783 855 1005 946 793 449 343 320 420 317 436 241 98 93 10 48 50 49 100 36 23 4
1824 1947 1487 1218 1837 1619 1207 767 939 959 760 680 593 647 610 553 459 359 331 304 241 137 55 61 19 33 49 44 39 1 2 0
1645 1835 1332 1092 1556 1620 1294 877 659 659 680 746 757 562 520 422 331 283 113 170 205 171 80 0 6 31 34 47 27 0 0 2
1705 1815 1432 1065 1025 1532 1200 1151 670 610 582 523 317 466 417 419 277 164 71 174 143 163 58 47 21 27 52 49 4 1 0 7
1360 1930 1867 1359 851 868 889 757 563 302 457 531 359 217 182 167 168 82 89 152 74 106 50 51 38 31 46 12 34 16 5 12
0 1586 2075 1605 1052 805 565 392 278 192 263 439 240 240 236 131 46 27 65 51 56 56 38 14 30 7 15 13 15 35 26 11
0 86 1735 1751 1242 695 558 412 395 169 421 342 476 164 80 96 28 0 4 13 16 24 21 8 12 2 17 0 1 2 8 11
0 0 287 1698 1164 663 643 620 507 360 399 250 380 204 143 34 3 4 2 4 2 9 29 10 7 9 17 11 6 0 0 0
0 0 0 1292 1128 895 754 866 657 412 296 235 148 22 0 1 0 2 0 2 4 13 17 31 29 2 7 5 3 7 6 0
4 0 0 1044 1304 1013 967 1027 696 473 288 178 14 0 2 1 1 1 7 2 5 2 2 7 23 13 12 11 3 17 3 0
0 0 35 1085 1267 1141 1238 1125 922 555 114 12 0 0 0 1 2 1 1 2 2 3 8 6 8 17 21 21 52 48 50 37
0 0 201 1004 953 1040 1174 1014 1005 471 9 75 13 0 3 0 1 4 3 2 1 6 15 3 13 21 28 47 49 22 14 6

GFSFLT2_con_mlcape_105.txt.gz
CAPE
330 578 559 597 643 635 634 829 944 1039 1186 1308 1288 1074 875 514 635 459 144 48 6 22 0 2 23 103 151 137 145 115 172 130
209 393 524 498 600 627 554 524 599 757 951 1102 1233 1109 860 507 509 499 273 86 0 8 22 23 5 43 88 99 48 87 150 87
904 496 438 454 525 557 556 511 415 435 619 949 1023 900 732 541 569 567 332 79 111 242 53 0 0 23 64 66 49 32 53 37
1535 1167 862 1028 884 595 486 463 294 260 370 799 896 773 665 542 547 502 343 170 226 85 26 0 0 6 52 51 19 35 25 35
1835 1729 1434 1514 1295 737 611 574 381 278 414 556 788 591 475 416 381 351 287 197 59 4 0 0 0 0 13 18 18 44 14 27
1856 1660 1625 1717 1486 1066 1001 970 790 563 546 586 573 310 355 200 210 158 65 86 0 0 0 0 0 0 0 1 31 74 10 16
1824 1628 1646 1685 1680 1425 1154 1099 959 829 832 802 544 328 387 197 114 99 50 32 0 0 0 2 0 0 0 3 50 67 19 2
1820 1642 1424 1579 1808 1451 1247 1230 976 755 792 843 673 499 417 311 178 152 96 25 10 0 15 10 3 0 1 1 46 45 11 0
1720 1614 1334 1657 1537 1305 1050 1057 952 801 845 966 655 511 494 358 203 112 86 77 109 81 47 16 2 1 8 10 63 40 3 4
1669 1598 1408 1547 1485 1421 1028 736 690 713 686 574 921 712 495 326 221 130 128 107 100 60 59 43 13 1 11 22 50 27 9 0
1444 1613 1456 1301 1564 1450 1119 807 598 922 702 511 553 817 648 362 271 187 137 102 126 53 27 34 17 0 25 20 42 3 2 0
1363 1511 1455 1293 1337 1491 1218 912 649 733 764 513 438 393 482 519 383 315 131 76 109 77 24 3 27 6 45 45 39 2 0 0
1300 1414 1361 1199 926 1455 1189 935 546 432 518 615 617 432 404 369 321 232 130 81 62 93 33 11 1 9 57 33 14 0 0 0
1185 1314 1281 1188 732 1139 1099 912 620 493 301 379 377 361 248 249 219 146 83 71 48 62 37 11 6 17 28 0 6 3 13 3
1611 1397 1265 1112 939 745 739 533 450 297 166 173 229 185 212 96 37 65 35 42 42 70 34 18 5 14 13 0 0 5 8 15
0 1693 1438 1126 962 750 489 309 235 258 87 56 115 181 87 110 41 0 0 4 7 16 24 17 4 19 4 0 0 0 0 1
0 0 521 1230 1008 883 542 383 217 198 84 185 180 192 89 43 20 0 0 1 2 4 25 12 8 22 14 0 0 0 6 4
0 0 0 229 811 898 725 480 344 275 205 153 96 61 29 3 0 0 2 2 4 6 34 2 13 13 3 0 0 0 3 15
0 0 0 0 821 768 866 663 543 420 279 143 45 29 0 0 0 2 2 1 2 3 4 24 6 11 1 0 0 2 3 24
0 0 0 0 164 910 907 729 454 468 249 89 21 0 0 0 0 2 2 3 5 2 4 2 16 4 2 0 0 0 21 26

GFSFLT2_con_mlcape_108.txt.gz
CAPE
201 448 684 829 767 805 975 1071 1214 1327 1259 1193 1129 960 912 791 374 54 0 62 101 72 12 60 132 316 239 223 216 246 196 178
168 354 695 732 750 723 868 936 1065 1209 1245 1203 1141 923 846 754 469 211 177 80 76 23 0 0 7 174 156 147 114 200 186 145
157 280 478 535 638 669 739 886 927 899 1053 1133 1135 921 803 661 533 221 51 32 23 7 10 15 8 67 88 45 82 128 125 113
158 192 362 464 572 649 548 569 606 637 830 902 982 861 633 543 439 263 159 86 21 14 57 8 0 5 40 50 69 115 106 107
877 319 370 531 578 449 406 420 319 338 597 803 809 673 504 480 485 414 279 100 112 167 96 6 0 7 30 34 63 104 95 107
1421 1011 784 1028 867 494 410 311 180 223 397 755 655 520 393 339 413 365 231 62 92 80 10 0 0 0 13 26 30 64 78 92
1590 1365 1158 1310 1309 782 597 496 359 241 312 605 537 414 328 272 281 219 135 56 48 20 0 0 0 0 0 8 18 53 41 52
1647 1648 1426 1394 1616 1191 936 860 651 514 454 493 423 288 201 210 187 173 86 57 4 0 0 0 0 0 0 2 14 49 29 42
1693 1791 1612 1367 1662 1496 1157 1031 872 699 704 616 402 243 169 123 119 94 26 13 6 0 0 0 0 0 2 1 4 33 25 27
1837 1790 1694 1374 1458 1662 1263 1120 988 739 755 789 525 342 278 176 104 80 34 0 0 0 0 0 0 7 18 20 12 19 18 16
1607 1787 1608 1530 1293 1590 1214 1137 1067 729 621 720 634 433 346 269 182 96 87 39 0 3 8 1 1 2 10 24 27 10 12 14
806 1279 1566 1516 1292 1253 1021 880 815 780 724 638 558 591 332 278 172 94 39 13 7 39 64 10 0 12 26 34 42 7 6 16
411 886 1436 1414 1312 1229 1157 1013 688 678 570 587 425 547 543 291 190 107 40 36 26 17 8 8 3 4 18 29 11 1 0 6
21 531 1138 1412 1473 1381 1261 991 713 604 594 753 492 295 395 505 315 156 46 17 3 15 6 1 2 3 2 29 12 1 0 0
1258 1309 1145 1342 1466 1319 917 687 621 578 502 498 490 382 277 215 205 193 133 91 31 12 5 0 1 2 0 5 3 1 0 0
2 1429 1304 1142 946 1141 968 814 801 687 501 284 353 421 350 201 94 61 46 53 61 1 2 1 0 0 0 3 0 0 0 0
0 0 0 219 819 843 869 897 746 387 281 242 205 177 159 172 71 27 1 21 3 4 3 3 1 7 2 1 0 0 0 0
0 0 0 0 10 765 833 702 522 353 198 165 33 34 28 93 51 26 16 2 0 1 3 3 9 26 4 0 0 0 0 0
0 0 0 0 0 14 732 581 414 359 226 119 42 28 24 45 44 28 0 1 1 2 7 30 42 17 5 2 0 0 0 0
0 0 0 0 0 0 260 692 404 291 216 151 80 36 31 2 6 0 0 0 0 3 14 15 24 2 4 1 0 0 0 0

GFSFLT2_con_mlcape_111.txt.gz
CAPE
503 725 939 989 894 1054 1242 1331 1308 1157 1054 971 1070 1100 989 840 603 434 405 311 214 336 426 483 470 467 422 338 322 327 273 247
291 617 771 860 858 925 1111 1334 1350 1236 1104 1052 1073 1011 853 671 503 325 222 113 86 101 123 242 340 322 313 241 254 259 206 201
237 385 488 618 735 988 1108 1199 1229 1280 1214 1152 1043 975 883 561 218 128 10 28 55 1 0 0 104 231 201 139 211 205 168 173
157 280 269 483 685 834 958 1057 1130 1162 1199 1187 1029 876 807 656 289 269 239 104 21 0 0 0 0 80 135 39 155 151 141 148
133 114 235 303 519 608 688 782 831 855 954 1042 1001 788 756 619 484 303 114 21 13 12 7 0 0 0 39 28 41 81 93 115
160 96 117 234 349 489 483 511 532 559 728 865 882 748 606 507 435 254 126 81 17 0 0 0 0 0 0 0 26 62 66 88
369 147 118 199 226 324 402 395 309 352 573 750 784 696 530 418 378 298 185 52 0 0 0 0 0 0 0 0 1 59 81 69
1056 612 338 331 390 326 320 344 248 259 388 667 680 578 429 356 272 258 204 23 0 0 0 0 0 0 0 2 10 7 49 74
1454 1288 903 696 765 671 498 420 357 258 338 623 611 521 382 332 293 229 128 19 0 0 0 0 0 0 0 0 0 1 25 56
1730 1679 1345 1086 1045 1026 912 701 557 402 380 427 476 457 333 239 216 181 56 35 15 0 0 0 0 0 0 0 0 0 3 40
1889 1793 1614 1468 1384 1318 1182 1003 847 612 561 496 406 391 245 173 148 103 47 26 10 0 0 0 0 0 0 1 0 0 0 25
2067 1855 1700 1639 1480 1386 1130 1123 924 720 703 692 576 427 251 166 112 68 47 16 0 0 0 1 1 0 6 6 8 1 0 7
1627 1735 1704 1649 1462 1340 1120 1414 1075 885 745 727 687 482 355 260 184 97 34 44 25 12 1 2 2 1 7 3 2 2 1 4
348 1443 1308 1532 1556 1438 1161 1279 916 907 694 621 688 606 426 367 272 166 71 38 33 19 1 2 3 2 2 5 1 1 0 1
0 762 1271 1515 1526 1221 1022 786 586 601 773 781 660 577 492 439 299 204 93 58 45 20 0 3 1 2 5 3 2 7 1 1
0 695 1373 1359 1501 1309 1126 1170 954 846 696 617 613 428 395 373 392 251 126 72 52 32 2 8 12 8 3 1 0 0 0 0
0 0 0 0 1006 1275 1163 1163 986 715 622 508 518 485 437 252 202 178 195 127 104 85 7 12 10 11 10 6 1 0 0 0
0 0 0 0 0 214 1047 1041 973 830 630 521 444 351 385 328 184 117 79 61 43 59 8 11 13 10 7 5 1 2 0 0
0 0 0 0 0 0 1 884 849 785 652 566 374 283 218 145 110 92 72 57 37 10 4 4 9 10 3 4 16 0 0 0
0 0 0 0 0 0 0 0 731 603 444 405 332 221 167 44 45 53 65 44 15 0 2 4 4 4 3 8 2 1 0 0

GFSFLT2_con_mlcape_114.txt.gz
CAPE
839 1002 1076 1109 1056 1153 1161 1125 1078 940 937 1137 1264 1216 1062 885 723 665 733 777 607 573 680 781 825 736 655 591 540 474 407 391
608 736 781 1023 1172 1197 1193 1208 1169 1049 957 1062 1130 1102 975 791 608 543 513 471 480 515 562 639 702 606 532 485 421 408 342 310
374 427 588 695 972 1196 1263 1333 1271 1128 1074 1047 1028 961 914 734 522 454 350 254 221 306 377 452 490 475 362 355 350 312 291 240
264 360 456 596 757 1037 1224 1377 1396 1232 1129 1059 935 872 761 587 358 317 148 60 10 40 13 73 225 206 203 228 205 154 179 176
207 288 477 571 633 771 913 1029 1150 1214 1136 1061 907 843 783 504 261 154 5 8 2 0 0 0 1 95 109 126 156 123 125 131
142 313 350 465 509 593 760 838 844 959 1073 1047 885 786 737 602 350 198 94 31 0 0 0 0 0 5 85 55 38 76 68 136
80 232 290 355 310 364 479 628 675 722 848 969 913 777 708 609 525 312 211 22 0 0 0 0 0 0 0 0 6 50 75 71
345 196 285 340 266 180 209 388 473 538 670 797 888 766 642 589 501 383 223 31 0 0 0 0 0 0 0 0 0 6 60 53
740 376 351 310 230 152 163 193 285 390 520 636 753 723 632 536 439 285 186 31 0 0 0 0 0 0 0 0 0 0 20 59
1210 690 386 322 285 195 200 200 221 262 336 516 631 642 546 462 377 246 115 51 14 0 0 0 0 0 0 0 0 0 0 28
1540 1332 943 647 550 386 362 282 243 234 285 377 503 551 453 435 363 216 67 93 35 0 0 0 0 0 0 0 0 0 0 5
1589 1665 1562 1194 1038 886 758 576 453 375 338 333 317 475 424 379 241 133 74 77 50 1 0 1 0 0 2 1 0 0 0 0
1694 1788 1713 1520 1450 1256 1002 841 697 613 518 462 365 362 355 320 226 89 80 97 59 3 0 1 3 0 2 1 2 1 0 2
1115 1906 1747 1678 1656 1469 1182 1118 1021 884 693 619 579 439 335 306 219 94 67 70 32 14 10 14 2 1 0 1 3 1 0 3
0 1008 1823 1707 1585 1361 986 957 808 904 795 765 765 553 417 355 234 153 55 57 41 29 34 27 10 1 1 2 11 5 0 1
0 17 1148 1511 1665 1535 1338 1346 1183 1109 1087 831 753 540 586 396 288 252 143 89 66 62 50 31 11 5 5 4 1 4 9 0
0 0 0 0 543 1624 1312 1342 1177 953 900 862 807 670 509 478 406 253 196 92 85 71 51 28 15 15 21 15 11 5 3 6
0 0 0 0 0 77 1062 1307 1219 993 839 852 751 666 484 456 401 308 187 170 116 77 56 33 29 9 17 23 22 11 1 1
1 0 0 0 0 0 0 179 1158 1111 966 865 742 611 447 549 382 348 283 214 130 73 62 36 41 11 16 28 22 22 5 0
2 0 0 0 0 0 0 0 2 731 779 826 617 546 443 437 403 261 180 93 93 68 56 33 33 8 16 16 19 14 11 1

GFSFLT2_con_mlcape_117.txt.gz
CAPE
1231 1462 1453 1308 1280 1261 1196 1033 950 1025 1083 1167 1297 1299 1249 1055 999 1070 1186 1225 1109 742 732 795 880 883 816 777 758 636 988 809
1083 1304 1609 1583 1389 1226 1228 1137 1007 1052 1112 1142 1197 1189 1167 1001 865 973 1038 1081 728 596 706 804 828 775 709 679 633 513 929 767
1047 1153 1277 1428 1299 1371 1298 1260 1125 1070 1160 1164 1152 1453 1253 1017 868 759 739 672 524 558 681 741 664 592 563 523 348 805 762 672
798 940 1014 1127 1059 1245 1527 1547 1486 1411 1401 1408 1596 1501 1409 1172 777 555 475 393 369 437 468 533 620 852 668 426 513 511 560 375
513 670 866 860 904 1065 1256 1380 1521 1487 1525 1511 1416 1278 1104 943 821 629 558 183 291 249 268 583 661 758 743 763 685 339 475 276
326 591 676 773 825 887 1076 1115 1258 1262 1415 1410 1166 916 879 879 725 731 531 288 233 148 11 0 110 449 560 632 587 339 471 267
354 426 572 723 631 773 861 980 1061 1254 1267 1290 1222 966 814 834 700 563 345 190 248 112 7 0 0 87 382 404 320 441 405 366
359 309 506 709 589 693 709 804 910 1061 1225 1186 1223 1021 834 731 686 507 482 357 52 77 19 0 0 16 118 247 272 324 376 304
432 354 531 570 628 621 585 639 735 982 1081 1123 1147 1060 823 751 608 595 568 265 17 72 20 0 0 0 2 41 51 125 234 194
1162 555 465 627 634 618 403 548 646 938 965 873 923 1025 911 716 595 576 547 128 56 73 0 0 1 0 0 0 0 25 99 187
1240 1141 691 612 791 719 510 442 636 809 811 672 731 907 941 742 579 416 253 143 37 60 0 0 0 1 0 1 2 7 34 70
1340 1259 1161 883 861 735 665 565 594 694 688 717 643 710 765 806 571 389 210 151 46 70 16 4 30 54 0 0 3 3 6 4
1325 1581 1318 1025 860 604 532 468 488 500 691 717 537 611 663 786 509 316 147 165 111 71 11 18 2 8 3 1 2 3 2 1
1487 1800 1707 1255 1126 975 902 707 736 640 548 616 611 610 543 692 548 333 177 159 97 30 23 4 5 2 0 4 5 1 1 2
1 1598 1947 1681 1577 1333 1210 1105 1099 968 787 687 681 696 525 562 512 387 235 203 142 46 28 46 28 3 1 8 5 2 1 2
0 137 1769 1841 1452 1548 1403 1372 1290 1292 1155 933 842 755 646 565 493 426 280 187 173 58 27 54 19 5 4 7 11 3 14 1
0 0 0 87 1329 1633 1495 1525 1581 1446 1367 1054 914 807 621 684 588 471 372 245 249 176 93 62 63 80 4 6 20 20 14 7
0 0 0 0 1 84 1204 1535 1662 1423 1375 1262 1166 877 714 771 671 558 458 379 407 220 144 92 92 61 14 3 5 12 8 10
1 1 1 1 1 0 1 181 789 1327 1305 1316 1096 996 820 858 672 576 542 475 343 272 179 112 55 43 36 10 3 7 21 17
3 3 1 1 3 2 0 1 2 50 1001 1112 1160 957 919 713 471 561 516 347 267 245 244 141 106 86 58 39 21 17 32 22